GFSWCAN_prec_precacc_156.txt.gz
Total_Precipitation_Accumulation
1.53 1.29 1.25 1.17 1.27 1.61 2.33 2.18 1.47 1.32 1.32 1.42 1.65 1.76 1.62 1.71 2.28 3.09 2.53 1.55 2.45 2.97 1.05 0.50 0.39 0.41 0.24 0.29 0.50 0.49 0.76 0.84 0.78 0.63 0.32 0.20 0.16 0.12 0.30 0.30 0.24 0.23 0.38 0.42 0.58 0.70 0.37 0.12 0.27 0.38 0.40 0.19 0.09 0.11
1.91 1.59 1.24 1.10 1.34 1.55 1.85 2.23 1.40 1.22 1.25 1.31 1.23 1.46 1.80 1.74 2.22 3.19 3.25 1.69 1.93 2.76 1.76 0.75 0.39 0.34 0.29 0.24 0.45 0.58 0.72 0.53 0.46 0.54 0.27 0.24 0.21 0.18 0.18 0.54 0.29 0.54 0.29 0.31 0.28 0.34 0.38 0.34 0.44 0.36 0.20 0.23 0.23 0.16
2.06 1.53 1.09 0.99 1.28 1.59 1.65 2.19 1.48 1.23 1.18 1.21 1.16 1.33 1.79 1.99 2.28 3.23 3.11 1.91 3.33 3.72 1.95 1.05 0.84 0.34 0.25 0.18 0.34 0.71 0.44 0.47 0.72 0.78 0.86 0.64 0.46 0.23 0.27 0.31 0.43 0.67 0.69 0.80 0.92 0.76 0.43 0.51 0.48 0.28 0.28 0.33 0.26 0.16
1.72 1.45 1.12 1.03 1.28 1.61 1.81 2.07 1.67 1.37 1.15 1.24 1.18 1.45 1.90 2.21 2.41 3.14 3.01 2.18 3.12 2.88 2.32 1.21 0.58 0.32 0.22 0.18 0.16 0.26 0.34 0.36 0.55 0.74 0.87 0.81 0.45 0.26 0.38 0.34 0.33 0.45 0.66 0.78 1.23 0.90 0.66 0.60 1.07 0.60 0.31 0.22 0.14 0.07
1.71 1.52 1.24 1.07 1.22 1.63 1.91 2.20 1.74 1.41 1.43 1.32 1.26 1.70 2.19 2.47 2.52 3.04 2.85 2.19 2.06 2.19 2.12 1.23 0.40 0.29 0.37 0.33 0.27 0.28 0.36 0.53 0.86 1.29 0.99 0.42 0.26 0.35 0.34 0.59 0.42 0.17 0.44 0.92 1.11 1.22 1.10 1.00 0.91 0.80 0.57 0.37 0.19 0.10
1.71 1.45 1.20 1.07 1.24 1.59 1.80 2.17 1.60 1.51 1.53 1.39 1.42 1.93 2.04 2.32 3.21 4.55 6.74 4.08 1.95 2.05 2.35 1.65 0.87 0.22 0.38 0.44 0.62 0.42 0.47 0.78 1.18 1.40 1.05 0.47 0.33 0.66 0.58 0.66 0.54 0.55 0.35 0.36 0.62 0.77 1.08 1.00 0.64 0.36 0.27 0.18 0.07 0.05
1.50 1.27 1.20 1.26 1.30 1.67 1.98 1.96 1.58 1.56 1.47 1.53 1.70 1.68 1.97 2.57 3.40 3.36 3.33 2.34 1.34 1.97 2.70 1.66 1.08 0.64 0.50 0.77 0.76 0.79 0.74 1.25 1.29 1.49 1.15 0.60 0.42 0.85 0.89 0.55 0.33 0.25 0.16 0.10 0.13 0.24 0.29 0.20 0.16 0.04 0.02 0.02 0.02 0.02
1.46 1.27 1.24 1.18 1.44 2.02 2.17 1.85 1.85 1.66 1.55 1.81 2.12 2.10 2.50 3.10 3.71 2.38 1.11 0.85 1.04 2.04 1.80 1.75 1.17 1.23 0.70 1.19 1.02 0.85 1.04 1.38 1.42 1.17 0.79 0.52 0.64 1.20 1.20 0.30 0.06 0.02 0.02 0.04 0.06 0.06 0.05 0.04 0.02 0.02 0.02 0.02 0.02 0.02
1.03 1.05 1.05 1.27 2.01 2.29 1.88 2.00 2.16 1.94 2.12 2.08 2.50 3.36 4.75 4.82 4.01 2.59 1.38 1.51 1.45 1.76 1.57 0.97 0.91 1.53 1.00 1.32 1.49 1.13 1.07 1.34 1.05 1.07 0.72 0.73 0.84 1.32 0.83 0.27 0.10 0.03 0.02 0.03 0.02 0.04 0.08 0.10 0.11 0.11 0.11 0.11 0.16 0.28
0.81 1.05 1.46 1.96 2.07 1.80 1.67 1.88 2.07 2.14 2.06 2.50 3.99 4.94 5.62 3.65 2.31 2.63 3.90 4.20 3.33 1.56 0.84 0.60 0.56 1.12 1.38 1.31 1.47 1.73 1.33 0.91 0.92 0.68 0.80 1.23 0.98 0.47 0.14 0.07 0.13 0.16 0.16 0.11 0.07 0.09 0.12 0.14 0.15 0.21 0.28 0.36 0.46 0.44
0.98 1.23 1.54 1.73 1.88 1.90 1.93 1.85 1.55 1.56 2.89 4.38 4.89 3.92 3.54 2.82 2.39 3.21 3.50 3.11 2.19 1.26 0.38 0.32 0.30 0.53 0.96 1.64 1.29 1.12 1.60 1.46 0.87 0.70 0.82 1.10 0.81 0.50 0.17 0.07 0.06 0.08 0.11 0.13 0.15 0.15 0.16 0.20 0.30 0.43 0.43 0.34 0.28 0.30
1.16 1.10 1.05 1.11 1.12 1.10 1.08 1.09 1.25 2.17 3.15 2.87 2.61 3.06 3.15 3.13 2.81 2.28 2.14 1.40 0.90 0.52 0.28 0.28 0.32 0.48 1.03 2.00 1.91 1.30 1.33 1.42 1.38 1.19 1.17 0.86 0.53 0.28 0.28 0.31 0.27 0.22 0.18 0.16 0.19 0.25 0.32 0.40 0.41 0.29 0.24 0.27 0.33 0.38
1.07 0.95 0.79 0.70 0.66 0.68 0.82 1.24 1.60 1.91 2.10 2.35 2.59 2.93 2.65 2.64 2.37 1.77 1.18 0.66 0.67 0.61 0.45 0.32 0.45 0.75 0.84 1.74 1.99 1.58 1.43 1.49 1.28 1.34 1.13 0.78 0.49 0.36 0.40 0.35 0.30 0.27 0.28 0.33 0.40 0.37 0.28 0.27 0.29 0.32 0.43 0.58 0.59 0.65
0.99 0.79 0.74 0.73 0.83 0.95 1.22 1.42 1.79 2.32 2.27 2.49 2.63 2.42 1.99 1.62 1.11 0.92 0.55 0.42 0.49 0.58 0.53 0.41 0.43 0.58 0.80 1.43 2.33 1.82 1.52 0.91 1.09 0.95 0.66 0.70 0.85 0.90 0.66 0.56 0.52 0.59 0.61 0.60 0.64 0.61 0.64 0.66 0.74 0.79 0.79 0.84 0.67 0.76
0.93 0.64 0.69 0.81 0.79 0.85 0.95 1.12 1.54 1.81 1.82 1.50 1.20 1.22 0.97 1.05 0.85 0.73 0.60 0.60 0.70 0.99 0.96 1.00 1.09 0.97 1.06 1.47 1.40 1.11 0.84 0.68 0.55 0.75 0.89 0.99 0.90 0.77 0.60 0.54 0.53 0.58 0.63 0.66 0.71 0.64 0.71 0.73 0.62 0.75 0.81 0.73 0.55 0.57
0.81 0.83 0.70 0.66 0.68 0.68 0.79 1.07 1.39 1.36 1.09 0.68 0.90 1.29 1.04 0.90 0.93 0.83 0.80 0.85 0.94 1.19 1.21 1.15 1.17 1.11 1.30 1.05 0.78 0.78 0.61 0.72 0.87 0.75 0.85 0.81 0.77 0.79 0.85 0.82 0.82 0.84 0.76 0.68 0.65 0.59 0.57 0.54 0.47 0.52 0.53 0.47 0.48 0.38
0.54 0.64 0.62 0.55 0.55 0.66 0.69 0.90 1.00 0.93 0.88 0.69 1.12 1.32 1.24 1.02 1.08 1.12 1.01 0.95 0.89 0.89 0.81 0.52 0.53 0.74 0.71 0.60 0.64 0.66 0.94 0.96 0.92 0.92 0.86 0.84 0.87 0.87 0.85 0.84 0.86 0.76 0.61 0.55 0.53 0.49 0.47 0.45 0.33 0.23 0.30 0.42 0.29 0.24
0.50 0.37 0.31 0.38 0.49 0.71 0.87 0.66 0.54 0.47 0.74 1.06 1.19 1.44 1.09 1.18 1.05 0.96 0.93 0.76 0.59 0.51 0.51 0.46 0.33 0.39 0.64 0.65 0.73 0.80 0.90 0.96 0.98 0.99 1.02 1.09 1.02 0.90 0.81 0.71 0.70 0.57 0.48 0.49 0.42 0.41 0.37 0.30 0.24 0.31 0.24 0.19 0.11 0.10
0.71 0.59 0.46 0.40 0.38 0.40 0.60 0.43 0.28 0.57 0.87 1.02 1.15 0.93 0.79 0.88 0.68 0.64 0.43 0.32 0.20 0.18 0.24 0.29 0.35 0.52 0.74 0.82 0.87 0.81 0.77 0.73 0.80 0.85 0.81 0.84 0.80 0.72 0.66 0.57 0.51 0.50 0.43 0.40 0.32 0.31 0.30 0.24 0.23 0.19 0.16 0.11 0.13 0.14
0.90 0.76 0.59 0.48 0.26 0.30 0.23 0.29 0.12 0.28 0.64 0.84 0.66 0.37 0.33 0.37 0.19 0.09 0.11 0.09 0.14 0.20 0.28 0.39 0.72 0.84 0.80 0.84 0.76 0.75 0.72 0.62 0.48 0.42 0.55 0.64 0.63 0.52 0.58 0.50 0.46 0.40 0.31 0.30 0.27 0.23 0.17 0.16 0.16 0.15 0.14 0.15 0.16 0.17
0.74 0.76 0.62 0.47 0.45 0.36 0.31 0.28 0.27 0.23 0.39 0.57 0.40 0.19 0.31 0.16 0.19 0.20 0.24 0.18 0.26 0.33 0.49 0.64 0.66 0.68 0.47 0.47 0.44 0.43 0.43 0.40 0.41 0.32 0.35 0.46 0.52 0.39 0.42 0.42 0.37 0.35 0.29 0.30 0.26 0.28 0.24 0.25 0.22 0.17 0.16 0.15 0.14 0.12
0.47 0.49 0.55 0.52 0.66 0.38 0.25 0.11 0.19 0.19 0.20 0.36 0.30 0.18 0.28 0.31 0.27 0.24 0.27 0.33 0.46 0.64 0.58 0.41 0.34 0.27 0.19 0.22 0.24 0.21 0.30 0.26 0.32 0.37 0.39 0.31 0.34 0.34 0.39 0.43 0.32 0.33 0.31 0.33 0.28 0.25 0.23 0.17 0.15 0.14 0.13 0.12 0.09 0.10
0.26 0.47 0.52 0.45 0.55 0.31 0.36 0.11 0.16 0.15 0.27 0.30 0.23 0.22 0.20 0.20 0.17 0.09 0.30 0.36 0.59 0.56 0.35 0.19 0.16 0.14 0.15 0.19 0.11 0.09 0.07 0.07 0.12 0.24 0.34 0.34 0.33 0.36 0.34 0.33 0.29 0.27 0.24 0.22 0.18 0.17 0.18 0.13 0.09 0.08 0.07 0.10 0.12 0.12
0.32 0.62 0.70 0.56 0.36 0.32 0.33 0.17 0.12 0.15 0.16 0.16 0.17 0.20 0.14 0.11 0.06 0.10 0.17 0.27 0.48 0.34 0.16 0.18 0.16 0.16 0.13 0.13 0.14 0.18 0.21 0.15 0.17 0.21 0.24 0.21 0.22 0.28 0.20 0.17 0.16 0.16 0.13 0.12 0.11 0.09 0.08 0.09 0.09 0.11 0.13 0.13 0.13 0.14
0.70 0.56 0.47 0.37 0.29 0.19 0.15 0.11 0.11 0.10 0.14 0.10 0.13 0.14 0.11 0.05 0.12 0.09 0.11 0.35 0.31 0.30 0.25 0.19 0.17 0.15 0.17 0.20 0.19 0.17 0.14 0.12 0.10 0.12 0.16 0.12 0.13 0.15 0.14 0.13 0.12 0.12 0.09 0.14 0.15 0.12 0.15 0.15 0.16 0.14 0.14 0.14 0.17 0.17
0.56 0.31 0.23 0.16 0.11 0.13 0.08 0.07 0.07 0.08 0.10 0.19 0.22 0.16 0.09 0.15 0.15 0.19 0.27 0.38 0.32 0.32 0.36 0.34 0.27 0.17 0.15 0.14 0.13 0.12 0.09 0.08 0.05 0.05 0.09 0.05 0.06 0.09 0.08 0.06 0.08 0.14 0.11 0.11 0.12 0.14 0.12 0.12 0.13 0.13 0.15 0.16 0.16 0.18
0.28 0.17 0.08 0.05 0.10 0.16 0.21 0.17 0.16 0.18 0.19 0.23 0.20 0.14 0.20 0.28 0.22 0.33 0.45 0.40 0.33 0.33 0.27 0.25 0.17 0.13 0.13 0.12 0.09 0.08 0.03 0.02 0.01 0.03 0.04 0.04 0.05 0.06 0.08 0.12 0.15 0.14 0.06 0.08 0.11 0.12 0.16 0.15 0.14 0.13 0.14 0.16 0.18 0.22
0.13 0.13 0.17 0.18 0.24 0.25 0.23 0.20 0.22 0.26 0.30 0.24 0.19 0.19 0.22 0.20 0.34 0.47 0.44 0.50 0.32 0.19 0.15 0.15 0.10 0.05 0.04 0.05 0.08 0.07 0.06 0.03 0.01 0.02 0.04 0.10 0.12 0.08 0.05 0.08 0.07 0.05 0.07 0.10 0.11 0.11 0.12 0.15 0.15 0.16 0.16 0.19 0.24 0.26
0.17 0.22 0.24 0.23 0.18 0.12 0.15 0.18 0.19 0.19 0.20 0.14 0.15 0.17 0.17 0.26 0.44 0.42 0.43 0.35 0.21 0.15 0.14 0.16 0.26 0.16 0.12 0.08 0.08 0.08 0.06 0.05 0.03 0.03 0.04 0.09 0.16 0.16 0.09 0.08 0.09 0.07 0.07 0.08 0.09 0.08 0.12 0.16 0.15 0.19 0.22 0.25 0.25 0.23
0.05 0.10 0.14 0.11 0.13 0.17 0.26 0.18 0.20 0.17 0.08 0.06 0.07 0.13 0.18 0.44 0.65 0.46 0.35 0.27 0.24 0.21 0.20 0.18 0.20 0.16 0.15 0.13 0.15 0.21 0.22 0.12 0.08 0.10 0.11 0.10 0.09 0.10 0.10 0.10 0.09 0.09 0.09 0.09 0.08 0.10 0.11 0.11 0.12 0.19 0.14 0.15 0.17 0.17
0.04 0.06 0.07 0.10 0.19 0.27 0.24 0.15 0.14 0.12 0.12 0.10 0.08 0.10 0.25 0.39 0.43 0.36 0.31 0.36 0.19 0.16 0.16 0.16 0.16 0.16 0.13 0.11 0.12 0.12 0.16 0.11 0.06 0.05 0.05 0.06 0.06 0.07 0.08 0.08 0.08 0.09 0.08 0.08 0.08 0.09 0.09 0.10 0.12 0.14 0.09 0.09 0.11 0.10
0.10 0.12 0.10 0.16 0.28 0.25 0.28 0.29 0.18 0.20 0.17 0.12 0.15 0.13 0.19 0.17 0.20 0.25 0.26 0.30 0.23 0.20 0.20 0.19 0.19 0.25 0.21 0.19 0.17 0.14 0.09 0.08 0.06 0.05 0.07 0.07 0.07 0.06 0.06 0.06 0.08 0.09 0.08 0.08 0.09 0.11 0.11 0.11 0.11 0.11 0.11 0.10 0.09 0.09
0.10 0.10 0.11 0.12 0.16 0.19 0.22 0.20 0.14 0.13 0.15 0.16 0.23 0.25 0.27 0.19 0.20 0.25 0.24 0.25 0.35 0.26 0.23 0.21 0.24 0.24 0.23 0.20 0.16 0.15 0.11 0.10 0.09 0.10 0.10 0.09 0.06 0.06 0.07 0.09 0.10 0.10 0.10 0.11 0.12 0.12 0.11 0.11 0.10 0.10 0.09 0.08 0.07 0.06

GFSWCAN_prec_precacc_159.txt.gz
Total_Precipitation_Accumulation
1.55 1.30 1.25 1.18 1.29 1.63 2.36 2.20 1.48 1.34 1.32 1.43 1.66 1.76 1.63 1.72 2.31 3.14 2.55 1.57 2.47 2.97 1.06 0.51 0.41 0.45 0.28 0.31 0.53 0.50 0.81 0.96 0.91 0.73 0.40 0.25 0.17 0.13 0.32 0.31 0.25 0.24 0.38 0.43 0.59 0.71 0.37 0.12 0.27 0.38 0.40 0.19 0.09 0.11
1.94 1.60 1.25 1.11 1.35 1.57 1.88 2.26 1.42 1.23 1.25 1.32 1.23 1.47 1.81 1.78 2.27 3.27 3.28 1.70 1.96 2.79 1.76 0.75 0.39 0.34 0.29 0.25 0.47 0.61 0.74 0.54 0.55 0.65 0.30 0.25 0.22 0.19 0.19 0.55 0.29 0.57 0.30 0.31 0.28 0.34 0.38 0.34 0.44 0.36 0.20 0.23 0.24 0.17
2.10 1.55 1.09 1.00 1.29 1.61 1.68 2.22 1.50 1.24 1.19 1.21 1.17 1.33 1.82 2.04 2.32 3.30 3.15 1.94 3.37 3.74 1.96 1.05 0.84 0.35 0.26 0.18 0.34 0.74 0.45 0.47 0.72 0.79 0.87 0.65 0.47 0.23 0.28 0.32 0.43 0.67 0.69 0.80 0.92 0.76 0.43 0.51 0.48 0.28 0.28 0.33 0.27 0.17
1.75 1.46 1.14 1.05 1.30 1.62 1.83 2.09 1.68 1.37 1.16 1.24 1.18 1.46 1.91 2.27 2.46 3.21 3.05 2.19 3.15 2.93 2.33 1.21 0.64 0.54 0.34 0.20 0.17 0.27 0.34 0.37 0.56 0.74 0.87 0.81 0.45 0.26 0.38 0.34 0.33 0.45 0.66 0.78 1.23 0.90 0.66 0.60 1.07 0.60 0.32 0.22 0.14 0.07
1.73 1.53 1.25 1.08 1.25 1.66 1.95 2.23 1.76 1.42 1.43 1.32 1.26 1.71 2.21 2.51 2.60 3.10 2.89 2.20 2.07 2.33 2.27 1.26 0.56 0.46 0.57 0.44 0.29 0.29 0.38 0.55 0.86 1.29 0.99 0.42 0.26 0.35 0.34 0.59 0.42 0.17 0.44 0.92 1.11 1.22 1.10 1.00 0.92 0.81 0.59 0.38 0.20 0.11
1.73 1.46 1.21 1.08 1.25 1.61 1.82 2.18 1.61 1.52 1.54 1.39 1.42 1.95 2.06 2.37 3.28 4.61 6.77 4.08 1.96 2.15 2.65 1.87 1.00 0.41 0.54 0.52 0.64 0.43 0.47 0.79 1.18 1.40 1.05 0.47 0.33 0.66 0.58 0.66 0.54 0.55 0.35 0.36 0.62 0.77 1.08 1.00 0.64 0.36 0.27 0.18 0.08 0.05
1.53 1.28 1.21 1.27 1.32 1.69 2.00 1.98 1.59 1.56 1.47 1.53 1.70 1.69 2.00 2.61 3.44 3.40 3.35 2.36 1.35 2.09 3.10 1.94 1.25 0.74 0.62 0.81 0.76 0.79 0.74 1.25 1.29 1.49 1.15 0.60 0.42 0.85 0.89 0.55 0.33 0.25 0.16 0.10 0.13 0.24 0.29 0.20 0.16 0.04 0.02 0.02 0.02 0.02
1.47 1.28 1.25 1.19 1.45 2.03 2.18 1.86 1.85 1.66 1.55 1.82 2.13 2.11 2.54 3.14 3.75 2.40 1.12 0.88 1.14 2.17 2.13 1.98 1.31 1.29 0.72 1.19 1.02 0.85 1.04 1.38 1.42 1.17 0.79 0.52 0.64 1.20 1.20 0.30 0.06 0.02 0.02 0.04 0.06 0.06 0.05 0.04 0.02 0.02 0.02 0.02 0.02 0.02
1.04 1.08 1.06 1.27 2.01 2.32 1.92 2.01 2.17 1.95 2.13 2.09 2.52 3.41 4.80 4.88 4.06 2.61 1.44 1.66 1.62 1.93 1.78 1.03 0.94 1.55 1.00 1.32 1.49 1.13 1.07 1.34 1.05 1.07 0.72 0.73 0.84 1.32 0.83 0.27 0.10 0.03 0.02 0.03 0.02 0.04 0.08 0.10 0.11 0.11 0.11 0.11 0.16 0.28
1.16 1.45 1.67 2.07 2.15 1.86 1.72 1.90 2.08 2.16 2.07 2.53 4.06 5.10 5.80 3.76 2.39 2.71 4.34 4.92 3.81 1.72 0.88 0.61 0.56 1.12 1.38 1.31 1.47 1.73 1.33 0.91 0.92 0.68 0.80 1.23 0.98 0.47 0.14 0.07 0.13 0.16 0.16 0.11 0.07 0.09 0.12 0.14 0.15 0.21 0.28 0.36 0.46 0.44
1.18 1.39 1.70 1.86 1.95 1.93 1.95 1.88 1.58 1.60 2.96 4.52 5.08 4.13 3.75 2.99 2.54 3.44 3.89 3.38 2.29 1.29 0.39 0.32 0.30 0.53 0.96 1.64 1.29 1.12 1.60 1.46 0.87 0.70 0.82 1.10 0.81 0.50 0.17 0.07 0.06 0.08 0.11 0.13 0.15 0.15 0.16 0.20 0.30 0.43 0.43 0.34 0.28 0.30
1.23 1.18 1.12 1.16 1.15 1.14 1.13 1.17 1.33 2.24 3.24 2.93 2.66 3.17 3.34 3.31 2.93 2.35 2.17 1.41 0.90 0.52 0.28 0.28 0.32 0.48 1.03 2.00 1.91 1.30 1.33 1.42 1.38 1.19 1.17 0.86 0.53 0.28 0.28 0.31 0.28 0.22 0.18 0.16 0.19 0.25 0.32 0.40 0.41 0.29 0.24 0.27 0.33 0.38
1.09 0.97 0.82 0.71 0.67 0.69 0.85 1.28 1.63 1.92 2.12 2.39 2.63 2.98 2.72 2.69 2.39 1.78 1.18 0.66 0.67 0.61 0.45 0.32 0.45 0.75 0.84 1.74 1.99 1.58 1.43 1.49 1.28 1.34 1.13 0.78 0.49 0.36 0.40 0.36 0.31 0.27 0.28 0.33 0.40 0.37 0.28 0.27 0.29 0.32 0.43 0.58 0.59 0.65
0.99 0.79 0.75 0.73 0.84 0.96 1.25 1.45 1.82 2.33 2.29 2.52 2.65 2.43 2.02 1.63 1.11 0.92 0.55 0.42 0.49 0.58 0.53 0.41 0.43 0.58 0.80 1.43 2.33 1.82 1.52 0.91 1.09 0.95 0.66 0.70 0.85 0.90 0.66 0.56 0.53 0.59 0.61 0.60 0.64 0.61 0.64 0.66 0.74 0.79 0.79 0.84 0.67 0.76
0.93 0.64 0.69 0.81 0.79 0.85 0.95 1.12 1.54 1.81 1.82 1.50 1.20 1.22 0.97 1.05 0.85 0.73 0.60 0.60 0.70 0.99 0.96 1.00 1.09 0.97 1.06 1.47 1.40 1.11 0.84 0.68 0.55 0.75 0.89 0.99 0.90 0.78 0.61 0.54 0.53 0.58 0.63 0.66 0.71 0.64 0.71 0.73 0.62 0.75 0.81 0.73 0.55 0.57
0.81 0.83 0.70 0.66 0.68 0.68 0.79 1.07 1.39 1.36 1.09 0.68 0.90 1.29 1.04 0.90 0.93 0.83 0.80 0.85 0.94 1.19 1.21 1.15 1.17 1.11 1.30 1.05 0.78 0.78 0.61 0.72 0.87 0.75 0.86 0.82 0.78 0.80 0.86 0.82 0.82 0.84 0.76 0.69 0.65 0.60 0.57 0.54 0.47 0.52 0.54 0.49 0.49 0.39
0.54 0.64 0.62 0.55 0.55 0.66 0.69 0.90 1.00 0.93 0.88 0.69 1.12 1.32 1.24 1.02 1.08 1.12 1.01 0.95 0.89 0.89 0.81 0.52 0.53 0.74 0.72 0.60 0.64 0.66 0.94 0.96 0.92 0.92 0.86 0.84 0.87 0.87 0.85 0.84 0.86 0.76 0.62 0.56 0.54 0.49 0.47 0.45 0.33 0.23 0.31 0.44 0.32 0.27
0.50 0.37 0.31 0.38 0.49 0.71 0.87 0.66 0.54 0.47 0.74 1.06 1.19 1.44 1.09 1.18 1.05 0.96 0.93 0.76 0.59 0.51 0.52 0.47 0.34 0.39 0.64 0.65 0.73 0.80 0.90 0.96 0.98 0.99 1.02 1.09 1.02 0.90 0.81 0.71 0.70 0.57 0.48 0.49 0.43 0.41 0.37 0.30 0.25 0.32 0.26 0.21 0.12 0.11
0.71 0.59 0.46 0.40 0.38 0.40 0.60 0.43 0.28 0.57 0.87 1.02 1.15 0.93 0.79 0.88 0.68 0.64 0.43 0.32 0.20 0.18 0.25 0.31 0.41 0.53 0.74 0.82 0.87 0.81 0.77 0.73 0.80 0.85 0.81 0.84 0.80 0.72 0.66 0.57 0.51 0.50 0.43 0.40 0.32 0.31 0.30 0.24 0.23 0.19 0.16 0.11 0.13 0.14
0.90 0.76 0.59 0.48 0.26 0.30 0.23 0.29 0.12 0.28 0.64 0.84 0.66 0.37 0.33 0.37 0.19 0.09 0.11 0.09 0.14 0.20 0.29 0.39 0.72 0.84 0.80 0.84 0.76 0.75 0.72 0.62 0.48 0.42 0.55 0.64 0.63 0.52 0.58 0.50 0.46 0.41 0.32 0.31 0.28 0.23 0.17 0.16 0.16 0.15 0.14 0.15 0.16 0.17
0.74 0.76 0.62 0.47 0.45 0.36 0.31 0.28 0.27 0.23 0.39 0.57 0.40 0.19 0.31 0.16 0.20 0.21 0.24 0.18 0.27 0.33 0.49 0.64 0.66 0.68 0.47 0.47 0.44 0.43 0.43 0.40 0.41 0.32 0.35 0.46 0.52 0.39 0.42 0.42 0.38 0.36 0.30 0.30 0.26 0.28 0.24 0.25 0.22 0.17 0.16 0.15 0.14 0.12
0.47 0.49 0.55 0.52 0.66 0.38 0.25 0.11 0.19 0.19 0.20 0.36 0.30 0.18 0.28 0.31 0.28 0.24 0.28 0.34 0.47 0.64 0.58 0.41 0.34 0.27 0.19 0.22 0.24 0.21 0.30 0.26 0.32 0.37 0.39 0.31 0.34 0.34 0.39 0.43 0.32 0.34 0.32 0.33 0.28 0.25 0.23 0.17 0.15 0.14 0.13 0.12 0.09 0.10
0.26 0.47 0.52 0.45 0.55 0.31 0.36 0.11 0.16 0.15 0.27 0.30 0.23 0.22 0.20 0.20 0.17 0.11 0.32 0.36 0.59 0.56 0.35 0.19 0.16 0.14 0.15 0.19 0.11 0.09 0.07 0.07 0.12 0.24 0.34 0.34 0.33 0.36 0.34 0.33 0.29 0.27 0.24 0.22 0.18 0.17 0.18 0.13 0.09 0.08 0.07 0.10 0.12 0.13
0.32 0.62 0.70 0.56 0.36 0.32 0.33 0.17 0.12 0.15 0.16 0.16 0.17 0.20 0.14 0.11 0.07 0.12 0.18 0.27 0.48 0.34 0.16 0.18 0.16 0.16 0.13 0.13 0.14 0.18 0.21 0.15 0.17 0.21 0.24 0.21 0.22 0.28 0.20 0.17 0.16 0.16 0.13 0.12 0.11 0.09 0.08 0.09 0.09 0.11 0.13 0.13 0.14 0.16
0.71 0.56 0.47 0.37 0.29 0.20 0.15 0.12 0.11 0.11 0.14 0.10 0.13 0.14 0.11 0.06 0.13 0.10 0.11 0.35 0.32 0.31 0.26 0.19 0.18 0.16 0.19 0.23 0.23 0.21 0.16 0.13 0.11 0.12 0.16 0.12 0.13 0.15 0.15 0.14 0.13 0.13 0.10 0.16 0.16 0.13 0.16 0.16 0.17 0.16 0.15 0.16 0.19 0.20
0.56 0.31 0.24 0.16 0.12 0.13 0.08 0.07 0.07 0.09 0.10 0.19 0.22 0.16 0.09 0.16 0.16 0.19 0.28 0.41 0.34 0.33 0.36 0.34 0.27 0.17 0.16 0.17 0.18 0.17 0.13 0.10 0.06 0.05 0.09 0.05 0.06 0.09 0.08 0.07 0.08 0.14 0.12 0.13 0.14 0.17 0.15 0.16 0.16 0.16 0.19 0.19 0.20 0.21
0.28 0.17 0.08 0.05 0.10 0.16 0.21 0.17 0.16 0.18 0.19 0.23 0.20 0.15 0.21 0.29 0.22 0.33 0.49 0.45 0.34 0.33 0.27 0.25 0.17 0.13 0.13 0.13 0.10 0.11 0.05 0.02 0.01 0.03 0.04 0.04 0.05 0.06 0.08 0.12 0.15 0.14 0.06 0.08 0.11 0.13 0.17 0.17 0.16 0.15 0.17 0.20 0.21 0.24
0.13 0.13 0.17 0.18 0.24 0.25 0.23 0.20 0.22 0.26 0.30 0.24 0.19 0.19 0.22 0.21 0.34 0.47 0.45 0.50 0.32 0.19 0.15 0.15 0.10 0.05 0.04 0.06 0.08 0.07 0.06 0.03 0.01 0.02 0.04 0.11 0.12 0.08 0.05 0.08 0.07 0.05 0.07 0.10 0.11 0.11 0.13 0.15 0.16 0.17 0.19 0.21 0.26 0.30
0.17 0.22 0.24 0.23 0.18 0.12 0.15 0.18 0.19 0.19 0.20 0.14 0.15 0.17 0.17 0.26 0.44 0.42 0.43 0.35 0.21 0.15 0.14 0.16 0.26 0.16 0.13 0.09 0.09 0.09 0.07 0.05 0.03 0.03 0.04 0.10 0.16 0.16 0.09 0.08 0.09 0.07 0.07 0.08 0.09 0.08 0.13 0.16 0.15 0.20 0.24 0.26 0.27 0.24
0.05 0.10 0.14 0.11 0.13 0.17 0.26 0.18 0.20 0.17 0.08 0.06 0.07 0.13 0.18 0.44 0.65 0.46 0.35 0.27 0.24 0.21 0.20 0.18 0.20 0.16 0.15 0.14 0.17 0.23 0.24 0.13 0.09 0.10 0.11 0.10 0.09 0.10 0.10 0.10 0.09 0.09 0.09 0.09 0.09 0.10 0.12 0.11 0.13 0.20 0.16 0.16 0.19 0.19
0.04 0.06 0.08 0.10 0.19 0.27 0.24 0.15 0.14 0.12 0.12 0.10 0.08 0.10 0.25 0.39 0.43 0.36 0.31 0.36 0.19 0.16 0.16 0.16 0.16 0.16 0.13 0.12 0.13 0.13 0.17 0.12 0.07 0.06 0.06 0.06 0.06 0.07 0.08 0.08 0.08 0.09 0.08 0.08 0.09 0.10 0.10 0.10 0.13 0.14 0.10 0.10 0.11 0.11
0.10 0.12 0.10 0.16 0.28 0.25 0.28 0.29 0.18 0.20 0.17 0.12 0.15 0.13 0.19 0.17 0.20 0.25 0.26 0.30 0.23 0.21 0.20 0.19 0.19 0.25 0.21 0.19 0.17 0.14 0.10 0.08 0.07 0.06 0.07 0.07 0.07 0.07 0.06 0.06 0.08 0.09 0.08 0.09 0.10 0.12 0.12 0.12 0.12 0.12 0.12 0.11 0.10 0.10
0.10 0.10 0.12 0.12 0.16 0.19 0.22 0.20 0.14 0.13 0.15 0.16 0.23 0.25 0.27 0.19 0.20 0.25 0.24 0.25 0.35 0.26 0.23 0.21 0.24 0.24 0.23 0.20 0.16 0.15 0.12 0.11 0.09 0.10 0.11 0.09 0.06 0.07 0.07 0.10 0.11 0.11 0.11 0.12 0.13 0.14 0.13 0.13 0.12 0.12 0.11 0.10 0.09 0.08

GFSWCAN_prec_precacc_165.txt.gz
Total_Precipitation_Accumulation
1.69 1.43 1.35 1.23 1.31 1.66 2.40 2.25 1.54 1.39 1.38 1.46 1.71 1.84 1.65 1.73 2.32 3.18 2.57 1.59 2.50 2.97 1.06 0.51 0.41 0.46 0.29 0.39 0.70 0.65 0.96 1.07 1.03 0.97 0.60 0.31 0.20 0.14 0.32 0.31 0.25 0.24 0.41 0.50 0.77 0.91 0.44 0.13 0.28 0.39 0.41 0.19 0.09 0.11
2.07 1.79 1.45 1.26 1.42 1.60 1.90 2.30 1.48 1.30 1.31 1.38 1.28 1.50 1.83 1.78 2.28 3.34 3.30 1.71 2.01 2.83 1.77 0.76 0.39 0.34 0.29 0.26 0.52 0.72 0.87 0.65 0.78 1.00 0.68 0.51 0.38 0.25 0.21 0.56 0.29 0.58 0.31 0.32 0.30 0.37 0.39 0.34 0.45 0.36 0.20 0.23 0.24 0.17
2.20 1.66 1.23 1.18 1.47 1.70 1.70 2.25 1.57 1.33 1.26 1.29 1.23 1.38 1.85 2.06 2.35 3.36 3.16 1.95 3.44 3.81 1.98 1.05 0.84 0.35 0.26 0.18 0.35 0.77 0.50 0.55 0.83 0.93 1.03 0.78 0.50 0.24 0.29 0.32 0.43 0.67 0.69 0.81 0.93 0.77 0.44 0.53 0.49 0.28 0.28 0.33 0.27 0.17
1.80 1.56 1.25 1.15 1.43 1.80 1.91 2.13 1.75 1.47 1.25 1.31 1.28 1.54 1.97 2.29 2.50 3.29 3.07 2.21 3.19 2.99 2.39 1.21 0.64 0.54 0.34 0.20 0.17 0.28 0.35 0.39 0.63 0.92 1.21 1.11 0.54 0.26 0.38 0.34 0.33 0.45 0.66 0.78 1.24 0.91 0.66 0.61 1.07 0.60 0.32 0.22 0.14 0.07
1.80 1.60 1.35 1.18 1.35 1.77 2.04 2.28 1.83 1.50 1.52 1.39 1.31 1.77 2.25 2.53 2.66 3.23 2.96 2.24 2.10 2.40 2.34 1.29 0.56 0.46 0.57 0.45 0.29 0.29 0.39 0.59 0.94 1.46 1.23 0.56 0.29 0.36 0.34 0.59 0.42 0.17 0.44 0.92 1.11 1.22 1.10 1.00 0.92 0.81 0.59 0.39 0.22 0.14
1.79 1.53 1.30 1.18 1.33 1.67 1.87 2.25 1.68 1.58 1.60 1.44 1.45 1.98 2.10 2.41 3.41 4.72 6.89 4.11 1.96 2.19 2.81 1.94 1.03 0.43 0.56 0.63 0.70 0.47 0.54 0.86 1.25 1.48 1.12 0.52 0.35 0.67 0.59 0.66 0.54 0.55 0.35 0.36 0.62 0.77 1.08 1.00 0.64 0.36 0.27 0.19 0.10 0.07
1.56 1.32 1.27 1.35 1.36 1.73 2.05 2.05 1.64 1.62 1.53 1.57 1.73 1.73 2.06 2.70 3.50 3.51 3.42 2.42 1.37 2.13 3.27 2.05 1.30 0.80 0.70 1.06 1.00 0.93 0.80 1.32 1.39 1.59 1.21 0.62 0.43 0.86 0.90 0.55 0.33 0.25 0.16 0.10 0.13 0.24 0.29 0.20 0.16 0.04 0.02 0.02 0.02 0.02
1.52 1.30 1.27 1.21 1.47 2.07 2.24 1.89 1.88 1.69 1.59 1.87 2.18 2.18 2.67 3.30 3.82 2.41 1.14 1.00 1.34 2.37 2.23 2.10 1.47 1.50 0.89 1.51 1.32 1.06 1.18 1.46 1.49 1.24 0.87 0.57 0.66 1.20 1.20 0.30 0.06 0.02 0.02 0.04 0.06 0.06 0.05 0.04 0.02 0.02 0.02 0.02 0.02 0.02
1.07 1.09 1.07 1.30 2.04 2.35 1.95 2.03 2.19 1.97 2.18 2.17 2.62 3.50 4.89 4.97 4.11 2.61 1.44 1.68 1.72 2.51 2.15 1.17 1.08 1.82 1.29 1.65 1.78 1.32 1.23 1.47 1.11 1.09 0.73 0.75 0.85 1.32 0.83 0.27 0.10 0.03 0.02 0.03 0.02 0.04 0.08 0.10 0.11 0.11 0.11 0.11 0.16 0.28
1.33 1.55 1.72 2.09 2.18 1.90 1.74 1.92 2.11 2.20 2.13 2.62 4.10 5.13 5.82 3.76 2.40 2.74 4.38 5.02 3.93 1.97 1.16 0.80 0.65 1.35 1.63 1.59 1.68 1.86 1.41 0.97 0.94 0.69 0.80 1.23 0.98 0.47 0.14 0.07 0.13 0.16 0.16 0.11 0.07 0.09 0.12 0.14 0.15 0.21 0.28 0.36 0.46 0.44
1.29 1.53 1.84 1.91 1.97 1.97 1.98 1.91 1.63 1.66 3.01 4.54 5.09 4.14 3.79 3.01 2.57 3.52 4.18 3.59 2.44 1.38 0.44 0.34 0.37 0.71 1.27 1.89 1.35 1.14 1.60 1.46 0.87 0.70 0.82 1.10 0.81 0.50 0.17 0.07 0.06 0.08 0.11 0.13 0.15 0.15 0.16 0.20 0.30 0.43 0.44 0.34 0.28 0.30
1.26 1.21 1.14 1.18 1.16 1.16 1.15 1.20 1.37 2.28 3.25 2.93 2.68 3.27 3.57 3.57 3.08 2.51 2.34 1.54 0.94 0.53 0.28 0.28 0.32 0.51 1.12 2.14 1.94 1.30 1.33 1.42 1.38 1.19 1.17 0.86 0.53 0.28 0.28 0.31 0.28 0.22 0.18 0.16 0.19 0.25 0.32 0.41 0.41 0.29 0.24 0.27 0.33 0.38
1.10 0.98 0.83 0.72 0.68 0.70 0.86 1.29 1.64 1.92 2.14 2.54 2.87 3.19 2.94 2.91 2.55 1.83 1.20 0.68 0.67 0.61 0.45 0.32 0.45 0.76 0.85 1.76 2.00 1.58 1.43 1.49 1.28 1.34 1.13 0.78 0.49 0.36 0.40 0.36 0.31 0.27 0.28 0.33 0.40 0.37 0.28 0.27 0.29 0.32 0.43 0.58 0.59 0.65
1.00 0.80 0.76 0.75 0.86 0.99 1.27 1.48 1.83 2.37 2.40 2.67 2.80 2.56 2.09 1.66 1.12 0.92 0.55 0.42 0.49 0.58 0.53 0.41 0.43 0.58 0.80 1.43 2.33 1.82 1.52 0.91 1.09 0.95 0.66 0.70 0.85 0.90 0.66 0.56 0.53 0.60 0.61 0.60 0.64 0.61 0.64 0.66 0.74 0.79 0.79 0.84 0.67 0.76
0.93 0.64 0.70 0.83 0.82 0.89 0.99 1.15 1.61 1.88 1.87 1.55 1.21 1.22 0.97 1.05 0.85 0.73 0.60 0.60 0.70 0.99 0.96 1.00 1.09 0.97 1.06 1.47 1.40 1.11 0.84 0.68 0.55 0.75 0.89 0.99 0.90 0.78 0.61 0.55 0.54 0.60 0.64 0.67 0.72 0.65 0.71 0.74 0.62 0.75 0.81 0.73 0.55 0.57
0.81 0.84 0.70 0.67 0.69 0.68 0.80 1.09 1.42 1.38 1.14 0.69 0.90 1.29 1.04 0.90 0.93 0.83 0.80 0.85 0.94 1.19 1.21 1.15 1.17 1.11 1.30 1.05 0.78 0.78 0.61 0.72 0.87 0.75 0.86 0.82 0.78 0.80 0.86 0.83 0.82 0.84 0.76 0.69 0.65 0.60 0.57 0.54 0.47 0.52 0.54 0.49 0.50 0.40
0.54 0.64 0.62 0.55 0.55 0.66 0.70 0.92 1.05 0.98 0.89 0.69 1.12 1.32 1.24 1.02 1.08 1.12 1.01 0.95 0.89 0.89 0.81 0.52 0.53 0.74 0.72 0.60 0.64 0.66 0.94 0.96 0.92 0.92 0.86 0.84 0.87 0.87 0.85 0.84 0.86 0.76 0.62 0.56 0.54 0.50 0.47 0.45 0.33 0.23 0.31 0.45 0.35 0.35
0.50 0.37 0.31 0.38 0.49 0.72 0.89 0.68 0.55 0.47 0.74 1.06 1.19 1.44 1.09 1.18 1.05 0.96 0.93 0.76 0.59 0.51 0.52 0.47 0.34 0.39 0.64 0.65 0.73 0.80 0.90 0.96 0.98 0.99 1.02 1.09 1.02 0.90 0.81 0.71 0.70 0.57 0.48 0.49 0.43 0.42 0.38 0.30 0.25 0.32 0.26 0.23 0.15 0.14
0.71 0.59 0.46 0.40 0.38 0.40 0.61 0.43 0.28 0.57 0.87 1.02 1.15 0.93 0.79 0.88 0.68 0.64 0.43 0.32 0.20 0.18 0.25 0.31 0.41 0.53 0.74 0.82 0.87 0.81 0.77 0.73 0.80 0.85 0.81 0.84 0.80 0.72 0.66 0.57 0.51 0.50 0.43 0.41 0.33 0.32 0.30 0.25 0.24 0.19 0.16 0.12 0.14 0.15
0.90 0.76 0.59 0.48 0.26 0.30 0.23 0.29 0.12 0.28 0.64 0.84 0.66 0.37 0.33 0.37 0.19 0.09 0.11 0.09 0.14 0.20 0.29 0.39 0.72 0.84 0.80 0.84 0.76 0.75 0.72 0.62 0.48 0.42 0.55 0.64 0.63 0.52 0.58 0.50 0.46 0.41 0.33 0.32 0.30 0.25 0.18 0.16 0.17 0.16 0.15 0.16 0.17 0.18
0.74 0.76 0.62 0.47 0.45 0.36 0.31 0.28 0.27 0.23 0.39 0.57 0.40 0.19 0.31 0.16 0.20 0.21 0.25 0.19 0.30 0.34 0.49 0.64 0.66 0.68 0.47 0.47 0.44 0.43 0.43 0.40 0.41 0.32 0.35 0.46 0.52 0.39 0.42 0.42 0.38 0.36 0.31 0.32 0.29 0.30 0.25 0.26 0.23 0.18 0.18 0.16 0.15 0.13
0.47 0.49 0.55 0.52 0.66 0.38 0.25 0.11 0.19 0.19 0.20 0.36 0.30 0.18 0.29 0.31 0.28 0.26 0.31 0.40 0.49 0.64 0.58 0.41 0.34 0.27 0.19 0.22 0.24 0.21 0.30 0.26 0.32 0.37 0.39 0.31 0.34 0.34 0.39 0.43 0.32 0.34 0.33 0.35 0.29 0.26 0.23 0.18 0.15 0.15 0.14 0.13 0.09 0.11
0.26 0.47 0.52 0.45 0.55 0.31 0.36 0.11 0.16 0.15 0.27 0.30 0.23 0.22 0.20 0.20 0.17 0.13 0.36 0.37 0.60 0.57 0.36 0.21 0.18 0.16 0.16 0.19 0.11 0.09 0.07 0.07 0.12 0.24 0.34 0.34 0.33 0.36 0.34 0.34 0.30 0.28 0.24 0.23 0.19 0.17 0.18 0.13 0.09 0.08 0.07 0.11 0.13 0.14
0.32 0.62 0.70 0.56 0.36 0.32 0.33 0.17 0.12 0.15 0.16 0.16 0.17 0.20 0.14 0.11 0.08 0.15 0.20 0.28 0.51 0.37 0.19 0.23 0.22 0.21 0.16 0.15 0.16 0.19 0.22 0.16 0.17 0.22 0.26 0.23 0.24 0.30 0.21 0.18 0.17 0.17 0.14 0.16 0.13 0.11 0.08 0.09 0.09 0.12 0.14 0.13 0.15 0.16
0.71 0.56 0.47 0.37 0.29 0.20 0.15 0.12 0.11 0.11 0.15 0.11 0.13 0.14 0.11 0.06 0.15 0.11 0.12 0.39 0.43 0.42 0.31 0.22 0.21 0.21 0.25 0.29 0.30 0.30 0.27 0.23 0.23 0.22 0.24 0.18 0.17 0.17 0.16 0.15 0.15 0.14 0.13 0.21 0.22 0.20 0.23 0.22 0.21 0.19 0.18 0.18 0.22 0.24
0.56 0.31 0.24 0.16 0.12 0.14 0.08 0.07 0.07 0.09 0.10 0.19 0.22 0.16 0.10 0.17 0.16 0.19 0.29 0.48 0.47 0.36 0.36 0.34 0.27 0.18 0.17 0.20 0.21 0.22 0.19 0.18 0.15 0.11 0.12 0.08 0.10 0.11 0.09 0.07 0.09 0.15 0.13 0.15 0.19 0.24 0.23 0.25 0.26 0.26 0.28 0.27 0.28 0.29
0.28 0.17 0.08 0.06 0.11 0.16 0.21 0.17 0.16 0.18 0.19 0.23 0.20 0.15 0.22 0.30 0.22 0.35 0.57 0.58 0.41 0.34 0.27 0.25 0.17 0.13 0.13 0.13 0.11 0.13 0.08 0.05 0.05 0.06 0.06 0.06 0.08 0.08 0.09 0.13 0.15 0.14 0.06 0.08 0.12 0.15 0.20 0.21 0.22 0.22 0.26 0.29 0.30 0.32
0.14 0.13 0.17 0.18 0.24 0.25 0.24 0.20 0.22 0.26 0.30 0.24 0.19 0.20 0.22 0.21 0.34 0.48 0.47 0.51 0.32 0.19 0.15 0.15 0.10 0.05 0.04 0.06 0.09 0.09 0.10 0.06 0.03 0.03 0.05 0.14 0.16 0.10 0.06 0.08 0.08 0.05 0.08 0.11 0.11 0.11 0.14 0.17 0.19 0.22 0.25 0.28 0.35 0.39
0.17 0.22 0.24 0.23 0.18 0.12 0.16 0.18 0.19 0.19 0.20 0.14 0.16 0.17 0.17 0.26 0.44 0.42 0.43 0.35 0.21 0.15 0.14 0.16 0.26 0.16 0.13 0.09 0.10 0.11 0.10 0.09 0.06 0.05 0.06 0.12 0.17 0.16 0.09 0.08 0.09 0.07 0.08 0.09 0.10 0.09 0.13 0.16 0.16 0.21 0.26 0.31 0.33 0.31
0.06 0.10 0.15 0.11 0.13 0.17 0.26 0.18 0.20 0.17 0.08 0.06 0.07 0.13 0.18 0.44 0.65 0.46 0.35 0.27 0.25 0.22 0.21 0.19 0.20 0.16 0.16 0.14 0.17 0.24 0.27 0.18 0.14 0.14 0.13 0.11 0.09 0.10 0.10 0.10 0.09 0.09 0.10 0.10 0.09 0.11 0.13 0.12 0.14 0.22 0.18 0.20 0.23 0.22
0.06 0.09 0.11 0.11 0.19 0.27 0.24 0.15 0.14 0.12 0.12 0.10 0.08 0.10 0.25 0.39 0.43 0.37 0.32 0.37 0.19 0.16 0.17 0.16 0.17 0.16 0.14 0.13 0.14 0.14 0.19 0.15 0.10 0.09 0.07 0.07 0.07 0.07 0.08 0.08 0.08 0.09 0.09 0.08 0.09 0.10 0.10 0.11 0.14 0.16 0.12 0.12 0.14 0.13
0.12 0.15 0.14 0.18 0.29 0.25 0.28 0.29 0.18 0.20 0.17 0.12 0.15 0.13 0.19 0.18 0.21 0.26 0.27 0.31 0.24 0.21 0.22 0.21 0.21 0.28 0.25 0.23 0.21 0.16 0.12 0.10 0.08 0.07 0.08 0.08 0.08 0.07 0.07 0.08 0.09 0.09 0.09 0.09 0.11 0.13 0.13 0.13 0.14 0.14 0.14 0.13 0.13 0.12
0.10 0.11 0.13 0.15 0.16 0.19 0.22 0.21 0.14 0.13 0.15 0.16 0.23 0.25 0.28 0.21 0.21 0.27 0.26 0.26 0.36 0.29 0.25 0.24 0.26 0.27 0.26 0.22 0.18 0.16 0.13 0.13 0.13 0.12 0.11 0.10 0.07 0.08 0.09 0.12 0.12 0.12 0.12 0.12 0.14 0.16 0.15 0.14 0.14 0.14 0.13 0.13 0.12 0.11

GFSWCAN_prec_precacc_168.txt.gz
Total_Precipitation_Accumulation
1.71 1.45 1.37 1.27 1.38 1.71 2.41 2.26 1.54 1.40 1.40 1.49 1.77 2.16 1.87 1.78 2.35 3.20 2.58 1.59 2.50 2.98 1.06 0.51 0.41 0.46 0.29 0.39 0.70 0.71 0.99 1.15 1.26 1.13 0.72 0.45 0.30 0.18 0.34 0.32 0.25 0.25 0.45 0.53 0.81 0.97 0.47 0.13 0.28 0.40 0.41 0.19 0.09 0.11
2.09 1.81 1.47 1.28 1.46 1.67 1.96 2.32 1.49 1.31 1.32 1.40 1.30 1.53 2.00 1.95 2.32 3.36 3.31 1.73 2.03 2.84 1.77 0.76 0.39 0.34 0.29 0.26 0.52 0.72 0.88 0.66 0.86 1.15 0.81 0.68 0.59 0.41 0.27 0.58 0.30 0.59 0.32 0.35 0.33 0.42 0.41 0.34 0.45 0.37 0.20 0.24 0.24 0.17
2.22 1.68 1.25 1.20 1.50 1.76 1.78 2.29 1.59 1.34 1.28 1.30 1.26 1.41 1.88 2.11 2.41 3.40 3.17 1.97 3.45 3.82 1.99 1.05 0.84 0.35 0.26 0.18 0.35 0.77 0.50 0.55 0.84 0.96 1.07 0.84 0.65 0.36 0.36 0.34 0.44 0.67 0.70 0.83 0.94 0.77 0.45 0.54 0.51 0.30 0.29 0.33 0.27 0.17
1.81 1.56 1.25 1.17 1.45 1.82 2.01 2.22 1.77 1.48 1.28 1.35 1.33 1.60 2.03 2.35 2.53 3.33 3.08 2.21 3.20 3.00 2.40 1.21 0.64 0.54 0.34 0.20 0.17 0.28 0.35 0.39 0.64 0.96 1.26 1.17 0.63 0.34 0.43 0.37 0.33 0.46 0.66 0.78 1.24 0.91 0.67 0.61 1.09 0.62 0.32 0.22 0.14 0.07
1.83 1.61 1.36 1.19 1.36 1.80 2.16 2.43 1.87 1.52 1.55 1.44 1.41 1.89 2.38 2.64 2.73 3.30 2.99 2.25 2.11 2.40 2.34 1.30 0.56 0.46 0.57 0.45 0.29 0.29 0.39 0.59 0.95 1.47 1.24 0.60 0.36 0.47 0.39 0.59 0.42 0.17 0.44 0.92 1.11 1.22 1.11 1.01 0.92 0.81 0.59 0.39 0.22 0.14
1.81 1.55 1.34 1.22 1.36 1.71 2.00 2.43 1.77 1.60 1.63 1.49 1.52 2.09 2.24 2.52 3.51 4.77 6.91 4.12 1.97 2.21 2.83 1.94 1.03 0.43 0.56 0.63 0.70 0.47 0.54 0.86 1.27 1.49 1.13 0.53 0.36 0.69 0.60 0.66 0.54 0.55 0.35 0.36 0.62 0.77 1.08 1.00 0.64 0.36 0.27 0.19 0.10 0.08
1.58 1.36 1.35 1.40 1.42 1.78 2.14 2.23 1.71 1.64 1.56 1.63 1.78 1.79 2.11 2.74 3.52 3.51 3.42 2.42 1.37 2.16 3.31 2.08 1.30 0.81 0.71 1.06 1.00 0.93 0.81 1.34 1.40 1.60 1.22 0.63 0.44 0.88 0.91 0.55 0.33 0.25 0.16 0.10 0.13 0.24 0.29 0.20 0.16 0.04 0.02 0.02 0.02 0.02
1.55 1.36 1.33 1.27 1.54 2.12 2.30 1.94 1.89 1.70 1.61 1.89 2.20 2.19 2.70 3.33 3.84 2.42 1.15 1.00 1.37 2.45 2.30 2.16 1.47 1.50 0.91 1.53 1.33 1.07 1.21 1.50 1.54 1.26 0.89 0.58 0.67 1.22 1.21 0.30 0.06 0.02 0.02 0.04 0.06 0.06 0.05 0.04 0.02 0.02 0.02 0.02 0.02 0.02
1.08 1.11 1.09 1.32 2.06 2.36 1.96 2.03 2.19 1.98 2.19 2.19 2.64 3.52 4.92 4.98 4.12 2.61 1.44 1.69 1.75 2.66 2.38 1.24 1.08 1.82 1.32 1.69 1.87 1.41 1.32 1.56 1.16 1.12 0.74 0.77 0.90 1.35 0.83 0.27 0.10 0.03 0.02 0.03 0.02 0.04 0.08 0.10 0.11 0.11 0.11 0.11 0.16 0.28
1.34 1.56 1.73 2.10 2.18 1.90 1.74 1.92 2.11 2.20 2.14 2.62 4.10 5.13 5.82 3.76 2.40 2.75 4.41 5.04 3.96 2.00 1.20 0.81 0.68 1.37 1.66 1.66 1.93 2.10 1.56 1.08 1.01 0.74 0.82 1.25 0.99 0.47 0.14 0.07 0.13 0.16 0.16 0.11 0.07 0.09 0.12 0.14 0.15 0.21 0.28 0.36 0.46 0.44
1.31 1.53 1.84 1.91 1.97 1.97 1.98 1.92 1.64 1.66 3.02 4.54 5.09 4.14 3.79 3.02 2.58 3.53 4.19 3.61 2.45 1.40 0.44 0.34 0.37 0.71 1.32 2.06 1.60 1.41 1.76 1.54 0.91 0.72 0.84 1.11 0.82 0.50 0.17 0.07 0.06 0.08 0.11 0.13 0.15 0.15 0.16 0.20 0.30 0.43 0.44 0.34 0.28 0.30
1.26 1.22 1.14 1.18 1.17 1.16 1.16 1.21 1.38 2.28 3.25 2.93 2.68 3.27 3.58 3.58 3.09 2.51 2.35 1.56 0.95 0.53 0.28 0.28 0.33 0.51 1.15 2.25 2.20 1.42 1.40 1.43 1.39 1.19 1.18 0.86 0.53 0.28 0.28 0.31 0.28 0.22 0.18 0.16 0.19 0.25 0.32 0.41 0.41 0.29 0.24 0.27 0.33 0.38
1.10 0.99 0.83 0.72 0.69 0.71 0.86 1.30 1.64 1.92 2.14 2.54 2.87 3.19 2.95 2.93 2.64 1.84 1.21 0.68 0.68 0.61 0.45 0.33 0.47 0.78 0.87 1.79 2.07 1.60 1.43 1.49 1.28 1.34 1.13 0.78 0.49 0.36 0.40 0.36 0.31 0.27 0.28 0.33 0.40 0.37 0.28 0.27 0.29 0.32 0.43 0.58 0.59 0.65
1.01 0.81 0.76 0.75 0.86 0.99 1.27 1.48 1.83 2.37 2.40 2.67 2.80 2.59 2.14 1.71 1.14 0.92 0.55 0.42 0.49 0.58 0.53 0.42 0.47 0.60 0.81 1.44 2.33 1.82 1.52 0.91 1.09 0.95 0.66 0.70 0.85 0.90 0.66 0.56 0.53 0.60 0.61 0.60 0.64 0.61 0.65 0.67 0.74 0.80 0.79 0.84 0.67 0.76
0.93 0.64 0.70 0.83 0.82 0.90 0.99 1.16 1.61 1.88 1.88 1.58 1.24 1.25 0.99 1.07 0.87 0.73 0.60 0.60 0.70 0.99 0.96 1.06 1.13 0.98 1.06 1.47 1.40 1.11 0.85 0.69 0.55 0.75 0.89 0.99 0.90 0.78 0.61 0.55 0.54 0.60 0.64 0.67 0.72 0.65 0.72 0.74 0.62 0.75 0.81 0.73 0.55 0.57
0.81 0.84 0.70 0.67 0.69 0.68 0.80 1.09 1.42 1.39 1.14 0.71 0.91 1.29 1.04 0.90 0.93 0.83 0.80 0.85 0.94 1.20 1.26 1.20 1.19 1.11 1.30 1.05 0.78 0.78 0.61 0.72 0.87 0.75 0.86 0.82 0.78 0.80 0.86 0.83 0.82 0.84 0.76 0.69 0.65 0.60 0.57 0.54 0.47 0.52 0.54 0.49 0.50 0.40
0.54 0.64 0.62 0.55 0.56 0.67 0.70 0.92 1.05 1.00 0.89 0.69 1.12 1.32 1.24 1.02 1.08 1.12 1.01 0.95 0.89 0.91 0.87 0.53 0.53 0.74 0.72 0.60 0.64 0.66 0.94 0.96 0.92 0.92 0.86 0.84 0.87 0.87 0.85 0.84 0.86 0.76 0.62 0.56 0.54 0.50 0.47 0.45 0.33 0.23 0.31 0.45 0.35 0.35
0.50 0.37 0.31 0.38 0.50 0.73 0.89 0.70 0.58 0.47 0.74 1.06 1.19 1.44 1.09 1.18 1.05 0.96 0.93 0.76 0.59 0.51 0.52 0.47 0.34 0.39 0.64 0.65 0.73 0.80 0.90 0.96 0.98 0.99 1.02 1.09 1.02 0.90 0.81 0.71 0.70 0.57 0.48 0.49 0.43 0.42 0.38 0.30 0.25 0.33 0.27 0.23 0.15 0.14
0.71 0.59 0.46 0.40 0.38 0.40 0.62 0.44 0.28 0.57 0.87 1.02 1.15 0.93 0.79 0.88 0.68 0.64 0.43 0.32 0.20 0.18 0.25 0.31 0.41 0.53 0.74 0.82 0.87 0.81 0.77 0.73 0.80 0.85 0.81 0.84 0.80 0.72 0.66 0.57 0.51 0.50 0.43 0.41 0.33 0.32 0.31 0.25 0.24 0.20 0.17 0.12 0.14 0.16
0.90 0.76 0.59 0.48 0.26 0.30 0.23 0.29 0.12 0.28 0.64 0.84 0.66 0.37 0.33 0.37 0.19 0.09 0.11 0.09 0.14 0.20 0.29 0.39 0.72 0.84 0.80 0.84 0.76 0.75 0.72 0.62 0.48 0.43 0.57 0.65 0.63 0.52 0.58 0.50 0.46 0.41 0.33 0.32 0.30 0.25 0.19 0.17 0.17 0.16 0.16 0.16 0.17 0.19
0.74 0.76 0.62 0.47 0.45 0.36 0.31 0.28 0.27 0.23 0.39 0.57 0.40 0.19 0.31 0.16 0.21 0.22 0.25 0.20 0.31 0.35 0.49 0.64 0.66 0.68 0.47 0.47 0.44 0.43 0.43 0.40 0.41 0.33 0.36 0.47 0.52 0.39 0.42 0.42 0.38 0.36 0.31 0.32 0.29 0.30 0.25 0.26 0.23 0.18 0.18 0.17 0.16 0.13
0.47 0.49 0.55 0.52 0.66 0.38 0.25 0.11 0.19 0.19 0.20 0.36 0.30 0.18 0.29 0.31 0.28 0.26 0.33 0.42 0.50 0.64 0.58 0.42 0.35 0.27 0.19 0.22 0.24 0.21 0.30 0.26 0.32 0.37 0.39 0.31 0.34 0.34 0.39 0.43 0.32 0.34 0.33 0.35 0.29 0.26 0.23 0.18 0.15 0.15 0.14 0.13 0.10 0.11
0.26 0.47 0.52 0.45 0.55 0.31 0.36 0.11 0.16 0.15 0.27 0.30 0.23 0.22 0.20 0.20 0.18 0.14 0.37 0.38 0.61 0.60 0.41 0.24 0.19 0.17 0.16 0.20 0.12 0.09 0.08 0.07 0.12 0.24 0.34 0.34 0.33 0.36 0.34 0.34 0.30 0.28 0.24 0.23 0.19 0.17 0.18 0.13 0.09 0.08 0.07 0.11 0.13 0.14
0.32 0.62 0.70 0.56 0.36 0.32 0.33 0.17 0.12 0.15 0.16 0.16 0.17 0.20 0.14 0.11 0.09 0.17 0.21 0.31 0.58 0.44 0.22 0.23 0.22 0.21 0.16 0.15 0.16 0.20 0.23 0.17 0.18 0.22 0.26 0.23 0.24 0.30 0.21 0.18 0.17 0.17 0.15 0.16 0.14 0.11 0.09 0.10 0.10 0.12 0.14 0.14 0.15 0.17
0.71 0.56 0.47 0.37 0.29 0.20 0.15 0.12 0.11 0.11 0.15 0.11 0.13 0.14 0.11 0.06 0.15 0.11 0.13 0.44 0.50 0.45 0.31 0.22 0.21 0.21 0.25 0.29 0.30 0.30 0.27 0.24 0.24 0.24 0.26 0.18 0.18 0.17 0.16 0.15 0.15 0.15 0.14 0.21 0.22 0.21 0.24 0.23 0.23 0.21 0.21 0.20 0.23 0.24
0.56 0.31 0.24 0.16 0.12 0.14 0.09 0.07 0.07 0.09 0.10 0.19 0.22 0.16 0.10 0.18 0.17 0.20 0.32 0.59 0.55 0.38 0.37 0.35 0.27 0.18 0.17 0.20 0.21 0.22 0.19 0.19 0.17 0.12 0.13 0.09 0.11 0.12 0.09 0.07 0.09 0.15 0.13 0.16 0.20 0.25 0.24 0.27 0.28 0.29 0.31 0.31 0.31 0.31
0.29 0.17 0.08 0.06 0.11 0.16 0.21 0.17 0.16 0.18 0.19 0.23 0.20 0.15 0.22 0.31 0.23 0.42 0.65 0.72 0.45 0.34 0.27 0.25 0.17 0.13 0.13 0.13 0.11 0.13 0.08 0.07 0.07 0.08 0.06 0.06 0.08 0.09 0.10 0.14 0.16 0.15 0.07 0.09 0.12 0.16 0.23 0.24 0.25 0.26 0.30 0.34 0.33 0.36
0.14 0.13 0.17 0.18 0.24 0.25 0.24 0.20 0.22 0.26 0.30 0.24 0.20 0.20 0.23 0.21 0.35 0.51 0.47 0.51 0.32 0.19 0.15 0.15 0.10 0.06 0.04 0.06 0.09 0.10 0.10 0.07 0.05 0.05 0.06 0.14 0.16 0.10 0.07 0.09 0.08 0.06 0.09 0.12 0.12 0.12 0.15 0.19 0.21 0.25 0.29 0.32 0.40 0.45
0.18 0.23 0.25 0.24 0.19 0.13 0.16 0.19 0.19 0.19 0.20 0.14 0.16 0.18 0.18 0.26 0.44 0.42 0.43 0.35 0.21 0.15 0.14 0.17 0.26 0.16 0.13 0.09 0.10 0.11 0.10 0.10 0.08 0.08 0.08 0.13 0.17 0.16 0.09 0.08 0.09 0.07 0.08 0.10 0.11 0.10 0.13 0.16 0.16 0.22 0.28 0.32 0.35 0.34
0.10 0.14 0.19 0.15 0.16 0.20 0.28 0.19 0.21 0.17 0.08 0.06 0.07 0.13 0.19 0.44 0.67 0.47 0.35 0.27 0.25 0.22 0.21 0.20 0.21 0.17 0.16 0.15 0.18 0.24 0.27 0.19 0.15 0.16 0.15 0.12 0.10 0.10 0.10 0.10 0.09 0.10 0.10 0.10 0.10 0.12 0.13 0.12 0.14 0.22 0.18 0.21 0.24 0.24
0.09 0.10 0.14 0.15 0.22 0.28 0.24 0.15 0.14 0.12 0.12 0.10 0.08 0.10 0.26 0.40 0.45 0.39 0.32 0.37 0.19 0.16 0.17 0.17 0.18 0.19 0.16 0.15 0.16 0.16 0.21 0.16 0.12 0.10 0.08 0.08 0.07 0.08 0.09 0.08 0.09 0.09 0.09 0.08 0.09 0.11 0.10 0.11 0.14 0.16 0.13 0.12 0.15 0.13
0.12 0.15 0.14 0.19 0.30 0.26 0.29 0.29 0.18 0.20 0.17 0.12 0.15 0.13 0.20 0.19 0.24 0.28 0.29 0.31 0.24 0.21 0.22 0.22 0.22 0.29 0.27 0.27 0.24 0.18 0.14 0.12 0.09 0.08 0.08 0.08 0.08 0.07 0.08 0.08 0.09 0.10 0.09 0.09 0.12 0.13 0.13 0.13 0.14 0.14 0.14 0.13 0.13 0.13
0.10 0.11 0.13 0.16 0.18 0.20 0.22 0.21 0.14 0.14 0.15 0.16 0.23 0.26 0.30 0.22 0.25 0.30 0.29 0.27 0.37 0.30 0.27 0.25 0.27 0.28 0.26 0.23 0.19 0.17 0.14 0.14 0.14 0.13 0.11 0.10 0.07 0.08 0.10 0.12 0.13 0.12 0.12 0.12 0.15 0.16 0.15 0.14 0.14 0.14 0.13 0.13 0.12 0.12

GFSWCAN_prec_precacc_171.txt.gz
Total_Precipitation_Accumulation
1.72 1.46 1.40 1.34 1.45 1.76 2.45 2.27 1.55 1.40 1.40 1.50 1.81 2.24 2.01 1.82 2.37 3.22 2.61 1.61 2.50 2.98 1.06 0.51 0.41 0.46 0.29 0.39 0.71 0.73 1.00 1.16 1.33 1.40 0.98 0.58 0.38 0.25 0.39 0.34 0.27 0.28 0.51 0.59 0.89 1.04 0.52 0.16 0.33 0.43 0.45 0.20 0.10 0.11
2.12 1.83 1.48 1.30 1.49 1.70 2.01 2.37 1.51 1.31 1.33 1.41 1.33 1.55 2.16 2.21 2.40 3.40 3.34 1.76 2.04 2.86 1.77 0.76 0.39 0.34 0.29 0.26 0.52 0.72 0.88 0.67 0.88 1.20 0.90 0.74 0.62 0.44 0.34 0.70 0.37 0.62 0.34 0.39 0.42 0.53 0.47 0.37 0.46 0.37 0.20 0.24 0.24 0.17
2.23 1.70 1.26 1.21 1.51 1.79 1.81 2.36 1.65 1.36 1.29 1.31 1.29 1.45 1.89 2.28 2.60 3.47 3.21 2.00 3.48 3.83 1.99 1.05 0.84 0.35 0.26 0.18 0.35 0.77 0.51 0.56 0.84 0.97 1.09 0.85 0.68 0.39 0.43 0.43 0.53 0.70 0.70 0.86 0.96 0.78 0.45 0.54 0.51 0.30 0.29 0.34 0.27 0.17
1.82 1.57 1.27 1.19 1.47 1.84 2.04 2.25 1.87 1.51 1.29 1.37 1.35 1.64 2.03 2.37 2.57 3.40 3.15 2.24 3.21 3.01 2.40 1.21 0.64 0.54 0.34 0.20 0.17 0.28 0.35 0.39 0.64 0.98 1.30 1.20 0.65 0.35 0.43 0.42 0.45 0.52 0.69 0.78 1.25 0.91 0.67 0.62 1.09 0.62 0.34 0.23 0.15 0.07
1.86 1.62 1.37 1.21 1.38 1.82 2.18 2.46 1.97 1.58 1.56 1.46 1.43 1.92 2.40 2.68 2.78 3.35 3.03 2.26 2.12 2.41 2.35 1.30 0.56 0.46 0.57 0.45 0.29 0.29 0.39 0.60 0.96 1.49 1.26 0.61 0.37 0.47 0.41 0.62 0.44 0.18 0.45 0.94 1.13 1.23 1.12 1.02 0.92 0.81 0.59 0.40 0.22 0.14
1.82 1.58 1.35 1.23 1.37 1.72 2.02 2.47 1.88 1.69 1.65 1.54 1.57 2.15 2.31 2.62 3.70 4.95 7.07 4.17 1.98 2.23 2.85 1.95 1.03 0.43 0.56 0.63 0.70 0.48 0.54 0.88 1.29 1.51 1.15 0.53 0.36 0.70 0.60 0.67 0.54 0.55 0.35 0.36 0.62 0.77 1.08 1.00 0.64 0.36 0.27 0.19 0.10 0.08
1.60 1.41 1.38 1.43 1.45 1.80 2.17 2.30 1.91 1.72 1.58 1.67 1.81 1.88 2.27 2.90 3.68 3.59 3.45 2.43 1.37 2.19 3.34 2.09 1.30 0.81 0.71 1.06 1.00 0.94 0.81 1.36 1.44 1.64 1.24 0.64 0.45 0.90 0.92 0.55 0.33 0.25 0.16 0.10 0.13 0.24 0.29 0.20 0.16 0.04 0.02 0.02 0.02 0.02
1.58 1.39 1.36 1.30 1.57 2.16 2.37 2.09 2.09 1.74 1.63 1.92 2.22 2.29 2.84 3.45 3.97 2.44 1.16 1.01 1.38 2.47 2.33 2.17 1.48 1.50 0.92 1.56 1.38 1.11 1.25 1.54 1.58 1.30 0.91 0.59 0.68 1.24 1.22 0.30 0.06 0.02 0.02 0.04 0.06 0.06 0.05 0.04 0.02 0.02 0.02 0.02 0.02 0.02
1.11 1.14 1.13 1.36 2.08 2.38 1.99 2.11 2.24 2.00 2.21 2.22 2.66 3.57 5.01 5.04 4.14 2.63 1.45 1.71 1.79 2.71 2.48 1.29 1.10 1.85 1.35 1.73 1.92 1.48 1.39 1.63 1.19 1.15 0.75 0.78 0.91 1.35 0.83 0.27 0.10 0.03 0.02 0.03 0.02 0.04 0.08 0.10 0.11 0.11 0.11 0.11 0.16 0.28
1.34 1.56 1.73 2.10 2.19 1.91 1.75 1.94 2.12 2.21 2.17 2.64 4.11 5.14 5.84 3.78 2.40 2.76 4.43 5.06 3.99 2.02 1.22 0.82 0.69 1.39 1.69 1.74 2.01 2.18 1.69 1.18 1.06 0.76 0.84 1.27 0.99 0.47 0.14 0.07 0.13 0.16 0.16 0.11 0.07 0.09 0.12 0.14 0.15 0.21 0.28 0.36 0.46 0.44
1.31 1.53 1.84 1.91 1.97 1.97 1.98 1.92 1.64 1.66 3.02 4.54 5.09 4.15 3.80 3.03 2.61 3.58 4.21 3.64 2.47 1.42 0.45 0.34 0.37 0.71 1.34 2.07 1.64 1.49 1.92 1.68 0.97 0.77 0.87 1.14 0.82 0.50 0.17 0.07 0.06 0.08 0.11 0.13 0.15 0.15 0.16 0.20 0.30 0.43 0.44 0.34 0.28 0.30
1.27 1.22 1.15 1.19 1.17 1.16 1.16 1.21 1.38 2.28 3.25 2.93 2.68 3.28 3.60 3.61 3.11 2.53 2.36 1.58 0.97 0.54 0.29 0.28 0.33 0.52 1.15 2.26 2.29 1.54 1.52 1.52 1.44 1.21 1.23 0.88 0.54 0.28 0.28 0.31 0.28 0.22 0.18 0.16 0.19 0.25 0.32 0.41 0.41 0.29 0.24 0.27 0.33 0.38
1.12 1.00 0.84 0.72 0.69 0.71 0.86 1.30 1.64 1.92 2.14 2.54 2.87 3.20 2.96 2.93 2.65 1.85 1.21 0.69 0.69 0.62 0.47 0.35 0.54 0.85 0.91 1.84 2.29 1.72 1.51 1.52 1.29 1.37 1.15 0.78 0.49 0.36 0.40 0.36 0.31 0.27 0.28 0.33 0.40 0.37 0.28 0.27 0.29 0.32 0.43 0.58 0.59 0.66
1.02 0.82 0.76 0.75 0.87 0.99 1.27 1.48 1.83 2.37 2.40 2.67 2.80 2.59 2.14 1.73 1.17 0.96 0.58 0.45 0.51 0.59 0.53 0.43 0.57 0.79 0.92 1.55 2.41 1.87 1.55 0.92 1.10 0.96 0.67 0.70 0.85 0.90 0.66 0.56 0.53 0.60 0.61 0.60 0.64 0.61 0.65 0.67 0.74 0.80 0.79 0.84 0.67 0.76
0.93 0.64 0.70 0.83 0.82 0.90 0.99 1.16 1.61 1.88 1.88 1.59 1.27 1.29 1.02 1.09 0.90 0.76 0.64 0.63 0.70 1.00 0.97 1.08 1.21 1.10 1.12 1.50 1.41 1.12 0.85 0.69 0.55 0.75 0.89 0.99 0.90 0.78 0.61 0.55 0.54 0.60 0.64 0.67 0.72 0.65 0.72 0.74 0.62 0.75 0.81 0.73 0.55 0.57
0.81 0.84 0.71 0.67 0.69 0.69 0.80 1.09 1.42 1.39 1.14 0.72 0.93 1.29 1.05 0.92 0.96 0.85 0.82 0.87 0.96 1.21 1.27 1.25 1.31 1.14 1.32 1.06 0.78 0.78 0.61 0.72 0.87 0.75 0.86 0.82 0.78 0.80 0.86 0.83 0.82 0.84 0.76 0.69 0.65 0.60 0.57 0.54 0.47 0.52 0.54 0.49 0.50 0.40
0.54 0.65 0.62 0.56 0.56 0.67 0.71 0.92 1.06 1.00 0.89 0.70 1.12 1.33 1.24 1.03 1.09 1.13 1.02 0.96 0.90 0.93 0.94 0.57 0.54 0.75 0.72 0.61 0.65 0.66 0.94 0.96 0.92 0.92 0.86 0.84 0.87 0.87 0.85 0.84 0.86 0.76 0.62 0.56 0.54 0.50 0.47 0.45 0.33 0.23 0.31 0.45 0.35 0.35
0.50 0.37 0.31 0.38 0.50 0.74 0.90 0.70 0.59 0.49 0.75 1.06 1.19 1.44 1.09 1.18 1.05 0.97 0.93 0.76 0.59 0.53 0.55 0.51 0.34 0.39 0.64 0.65 0.74 0.80 0.90 0.96 0.98 0.99 1.02 1.09 1.02 0.90 0.81 0.71 0.70 0.57 0.48 0.49 0.43 0.42 0.38 0.30 0.25 0.33 0.27 0.23 0.15 0.14
0.71 0.59 0.46 0.40 0.38 0.41 0.62 0.45 0.29 0.58 0.87 1.02 1.15 0.93 0.79 0.88 0.68 0.64 0.44 0.32 0.20 0.18 0.25 0.32 0.42 0.54 0.75 0.83 0.88 0.81 0.77 0.73 0.80 0.85 0.81 0.84 0.80 0.72 0.66 0.57 0.51 0.50 0.43 0.41 0.33 0.32 0.31 0.25 0.24 0.20 0.17 0.12 0.14 0.16
0.90 0.76 0.59 0.49 0.26 0.31 0.25 0.30 0.13 0.29 0.64 0.85 0.66 0.37 0.33 0.37 0.19 0.10 0.11 0.09 0.15 0.22 0.29 0.39 0.72 0.84 0.81 0.84 0.76 0.75 0.72 0.62 0.48 0.43 0.58 0.67 0.65 0.53 0.59 0.50 0.46 0.41 0.33 0.32 0.30 0.25 0.19 0.17 0.17 0.16 0.16 0.16 0.17 0.19
0.74 0.76 0.63 0.48 0.47 0.38 0.32 0.28 0.27 0.23 0.40 0.57 0.40 0.19 0.31 0.16 0.21 0.22 0.26 0.20 0.34 0.37 0.50 0.65 0.67 0.69 0.47 0.47 0.45 0.43 0.43 0.40 0.41 0.33 0.36 0.48 0.56 0.40 0.42 0.42 0.38 0.36 0.31 0.32 0.29 0.30 0.25 0.26 0.23 0.18 0.18 0.17 0.16 0.14
0.47 0.49 0.56 0.53 0.67 0.39 0.26 0.11 0.20 0.20 0.20 0.36 0.30 0.19 0.29 0.32 0.29 0.27 0.33 0.44 0.52 0.67 0.63 0.46 0.37 0.27 0.19 0.22 0.24 0.21 0.31 0.27 0.32 0.37 0.39 0.31 0.34 0.34 0.39 0.43 0.32 0.34 0.33 0.35 0.29 0.26 0.23 0.18 0.15 0.15 0.14 0.13 0.10 0.11
0.26 0.47 0.52 0.46 0.55 0.31 0.36 0.12 0.17 0.16 0.28 0.31 0.24 0.22 0.20 0.21 0.18 0.15 0.39 0.40 0.65 0.63 0.43 0.25 0.19 0.17 0.16 0.20 0.12 0.10 0.08 0.07 0.13 0.25 0.34 0.34 0.33 0.36 0.34 0.34 0.30 0.28 0.24 0.23 0.19 0.17 0.19 0.13 0.09 0.09 0.08 0.11 0.13 0.14
0.32 0.62 0.70 0.56 0.37 0.32 0.33 0.17 0.13 0.16 0.17 0.16 0.18 0.20 0.15 0.12 0.11 0.18 0.23 0.35 0.61 0.46 0.23 0.23 0.22 0.21 0.16 0.15 0.16 0.20 0.23 0.17 0.19 0.23 0.27 0.24 0.26 0.31 0.21 0.18 0.17 0.17 0.15 0.16 0.14 0.11 0.09 0.10 0.10 0.13 0.14 0.14 0.15 0.17
0.71 0.56 0.47 0.38 0.30 0.20 0.16 0.12 0.11 0.11 0.15 0.11 0.13 0.14 0.11 0.07 0.16 0.12 0.15 0.48 0.53 0.47 0.32 0.22 0.21 0.21 0.25 0.29 0.30 0.30 0.27 0.24 0.25 0.24 0.26 0.20 0.21 0.20 0.19 0.16 0.16 0.15 0.14 0.22 0.23 0.22 0.25 0.24 0.24 0.23 0.23 0.21 0.24 0.25
0.56 0.31 0.25 0.17 0.13 0.15 0.09 0.08 0.08 0.09 0.11 0.19 0.22 0.16 0.10 0.18 0.18 0.21 0.38 0.79 0.65 0.41 0.38 0.35 0.27 0.18 0.17 0.20 0.21 0.22 0.19 0.19 0.17 0.13 0.14 0.10 0.12 0.13 0.11 0.08 0.10 0.16 0.14 0.16 0.21 0.26 0.26 0.29 0.29 0.31 0.34 0.34 0.34 0.33
0.30 0.18 0.09 0.06 0.11 0.16 0.22 0.18 0.16 0.18 0.19 0.24 0.21 0.15 0.23 0.31 0.25 0.49 0.68 0.76 0.46 0.34 0.27 0.25 0.17 0.13 0.14 0.13 0.11 0.13 0.08 0.07 0.08 0.09 0.07 0.06 0.08 0.09 0.10 0.14 0.17 0.16 0.07 0.09 0.12 0.17 0.23 0.26 0.27 0.28 0.32 0.37 0.36 0.39
0.17 0.14 0.19 0.20 0.25 0.26 0.25 0.21 0.23 0.27 0.32 0.25 0.21 0.21 0.23 0.21 0.38 0.52 0.47 0.51 0.32 0.19 0.15 0.15 0.10 0.06 0.05 0.06 0.09 0.10 0.10 0.07 0.06 0.06 0.07 0.14 0.16 0.10 0.07 0.09 0.09 0.06 0.09 0.12 0.13 0.13 0.16 0.19 0.22 0.26 0.31 0.35 0.42 0.48
0.23 0.24 0.26 0.26 0.20 0.16 0.22 0.23 0.24 0.23 0.21 0.15 0.18 0.20 0.19 0.27 0.45 0.43 0.43 0.35 0.21 0.15 0.15 0.17 0.27 0.17 0.14 0.10 0.11 0.11 0.10 0.11 0.10 0.11 0.10 0.16 0.18 0.16 0.09 0.08 0.09 0.07 0.08 0.10 0.11 0.10 0.13 0.16 0.16 0.22 0.28 0.33 0.36 0.36
0.11 0.14 0.20 0.19 0.18 0.23 0.32 0.21 0.22 0.17 0.08 0.06 0.07 0.13 0.19 0.48 0.69 0.49 0.36 0.28 0.25 0.23 0.22 0.21 0.23 0.19 0.18 0.17 0.19 0.26 0.29 0.21 0.18 0.19 0.18 0.16 0.11 0.11 0.10 0.10 0.09 0.10 0.10 0.11 0.10 0.12 0.13 0.12 0.14 0.22 0.19 0.21 0.25 0.25
0.09 0.10 0.14 0.16 0.22 0.29 0.26 0.17 0.15 0.12 0.12 0.10 0.08 0.11 0.28 0.43 0.47 0.41 0.33 0.37 0.19 0.16 0.17 0.17 0.18 0.19 0.18 0.17 0.19 0.19 0.25 0.18 0.15 0.13 0.11 0.10 0.08 0.08 0.09 0.08 0.09 0.10 0.09 0.09 0.10 0.11 0.11 0.11 0.14 0.16 0.13 0.13 0.15 0.14
0.12 0.15 0.14 0.19 0.30 0.26 0.31 0.31 0.19 0.20 0.17 0.12 0.15 0.14 0.22 0.23 0.29 0.31 0.30 0.31 0.24 0.22 0.22 0.22 0.23 0.30 0.28 0.28 0.26 0.21 0.16 0.13 0.11 0.11 0.11 0.09 0.08 0.07 0.08 0.09 0.10 0.10 0.09 0.10 0.12 0.13 0.13 0.13 0.14 0.14 0.14 0.14 0.13 0.14
0.10 0.11 0.14 0.17 0.19 0.22 0.24 0.21 0.14 0.14 0.15 0.17 0.24 0.28 0.35 0.29 0.29 0.33 0.31 0.28 0.38 0.31 0.28 0.26 0.28 0.30 0.28 0.25 0.22 0.19 0.16 0.17 0.17 0.15 0.12 0.10 0.07 0.08 0.11 0.14 0.14 0.13 0.12 0.13 0.15 0.16 0.15 0.15 0.14 0.14 0.14 0.13 0.13 0.12

GFSWCAN_prec_precacc_174.txt.gz
Total_Precipitation_Accumulation
1.76 1.49 1.42 1.37 1.52 1.83 2.49 2.29 1.56 1.41 1.40 1.51 1.82 2.26 2.05 1.85 2.38 3.22 2.61 1.64 2.55 3.02 1.07 0.51 0.41 0.46 0.30 0.40 0.71 0.74 1.02 1.19 1.35 1.42 1.06 0.69 0.46 0.30 0.40 0.34 0.28 0.30 0.58 0.66 0.95 1.10 0.56 0.20 0.37 0.50 0.48 0.21 0.11 0.12
2.17 1.88 1.50 1.32 1.53 1.78 2.07 2.40 1.53 1.32 1.33 1.41 1.33 1.57 2.21 2.29 2.44 3.42 3.35 1.78 2.08 2.91 1.81 0.77 0.39 0.34 0.29 0.27 0.53 0.73 0.89 0.69 0.91 1.22 0.96 0.78 0.64 0.46 0.36 0.71 0.38 0.64 0.36 0.43 0.47 0.61 0.58 0.48 0.49 0.37 0.21 0.24 0.24 0.17
2.26 1.72 1.29 1.22 1.52 1.83 1.88 2.39 1.68 1.37 1.29 1.32 1.29 1.46 1.91 2.35 2.70 3.54 3.24 2.06 3.54 3.88 2.00 1.05 0.84 0.35 0.26 0.18 0.35 0.77 0.51 0.56 0.86 0.99 1.11 0.87 0.69 0.43 0.45 0.45 0.55 0.78 0.82 1.12 1.06 0.78 0.46 0.58 0.56 0.31 0.29 0.34 0.28 0.18
1.86 1.59 1.29 1.21 1.47 1.86 2.07 2.28 1.89 1.57 1.30 1.38 1.36 1.66 2.05 2.39 2.64 3.49 3.23 2.29 3.26 3.04 2.42 1.22 0.64 0.54 0.34 0.20 0.17 0.28 0.35 0.39 0.65 0.99 1.33 1.21 0.66 0.36 0.44 0.43 0.45 0.55 0.75 0.85 1.30 0.92 0.68 0.62 1.09 0.62 0.34 0.23 0.15 0.07
1.88 1.65 1.38 1.22 1.39 1.83 2.19 2.47 1.99 1.65 1.61 1.47 1.46 1.95 2.42 2.69 2.79 3.39 3.09 2.32 2.18 2.48 2.40 1.31 0.56 0.46 0.57 0.45 0.29 0.29 0.39 0.60 0.97 1.50 1.27 0.61 0.37 0.48 0.41 0.62 0.44 0.18 0.47 1.09 1.23 1.25 1.14 1.03 0.92 0.81 0.59 0.40 0.22 0.14
1.83 1.60 1.36 1.24 1.38 1.73 2.03 2.48 1.90 1.77 1.68 1.55 1.59 2.18 2.33 2.63 3.72 5.02 7.24 4.23 1.99 2.25 2.89 1.95 1.03 0.43 0.56 0.63 0.70 0.48 0.54 0.89 1.31 1.54 1.17 0.54 0.36 0.70 0.60 0.67 0.54 0.55 0.36 0.36 0.62 0.77 1.08 1.00 0.64 0.36 0.27 0.19 0.10 0.08
1.61 1.43 1.40 1.45 1.46 1.81 2.18 2.32 1.93 1.83 1.61 1.70 1.86 1.94 2.33 2.97 3.76 3.71 3.51 2.45 1.38 2.21 3.37 2.11 1.31 0.81 0.71 1.06 1.00 0.94 0.81 1.37 1.46 1.68 1.25 0.65 0.45 0.91 0.92 0.55 0.33 0.25 0.16 0.10 0.13 0.24 0.29 0.20 0.16 0.04 0.02 0.02 0.02 0.02
1.58 1.40 1.38 1.32 1.59 2.17 2.39 2.12 2.16 1.87 1.66 1.95 2.26 2.34 2.95 3.60 4.11 2.61 1.18 1.01 1.39 2.49 2.35 2.19 1.48 1.51 0.93 1.58 1.41 1.12 1.27 1.58 1.61 1.32 0.92 0.61 0.69 1.27 1.25 0.30 0.06 0.02 0.02 0.04 0.06 0.06 0.05 0.04 0.02 0.02 0.02 0.02 0.02 0.02
1.12 1.15 1.14 1.37 2.10 2.40 2.02 2.17 2.41 2.07 2.23 2.24 2.68 3.68 5.28 5.30 4.36 2.74 1.47 1.72 1.82 2.73 2.49 1.30 1.10 1.86 1.37 1.79 1.98 1.56 1.47 1.70 1.22 1.17 0.76 0.81 0.94 1.37 0.83 0.27 0.10 0.03 0.02 0.03 0.02 0.04 0.08 0.10 0.11 0.11 0.11 0.11 0.16 0.28
1.35 1.57 1.74 2.12 2.20 1.94 1.83 2.11 2.25 2.25 2.18 2.64 4.14 5.18 5.95 3.90 2.44 2.77 4.43 5.07 4.01 2.04 1.23 0.82 0.70 1.41 1.73 1.83 2.14 2.26 1.76 1.24 1.10 0.77 0.85 1.28 0.99 0.47 0.14 0.07 0.13 0.16 0.16 0.11 0.07 0.09 0.12 0.14 0.15 0.21 0.28 0.36 0.46 0.44
1.31 1.53 1.85 1.92 1.99 2.01 2.06 2.02 1.67 1.68 3.03 4.54 5.11 4.17 3.82 3.04 2.63 3.60 4.22 3.64 2.48 1.43 0.45 0.34 0.37 0.71 1.34 2.10 1.68 1.56 2.00 1.79 1.09 0.80 0.88 1.15 0.82 0.50 0.17 0.07 0.06 0.08 0.11 0.13 0.15 0.15 0.16 0.20 0.30 0.43 0.44 0.34 0.28 0.30
1.27 1.22 1.15 1.19 1.17 1.16 1.17 1.22 1.38 2.29 3.26 2.94 2.69 3.28 3.61 3.63 3.14 2.54 2.38 1.59 0.98 0.54 0.30 0.30 0.33 0.52 1.16 2.28 2.31 1.55 1.54 1.56 1.55 1.31 1.27 0.91 0.54 0.28 0.28 0.31 0.28 0.22 0.18 0.16 0.19 0.25 0.32 0.41 0.41 0.29 0.24 0.27 0.33 0.38
1.12 1.00 0.84 0.72 0.69 0.71 0.87 1.30 1.64 1.92 2.15 2.55 2.88 3.20 2.97 2.94 2.66 1.85 1.22 0.69 0.69 0.62 0.48 0.38 0.63 0.95 0.96 1.86 2.34 1.78 1.60 1.57 1.32 1.46 1.22 0.80 0.51 0.36 0.40 0.36 0.31 0.27 0.28 0.33 0.40 0.37 0.28 0.27 0.29 0.32 0.43 0.58 0.59 0.66
1.02 0.82 0.76 0.75 0.87 0.99 1.27 1.48 1.83 2.37 2.41 2.67 2.80 2.59 2.14 1.74 1.17 0.96 0.59 0.47 0.53 0.62 0.56 0.45 0.62 0.88 1.12 1.68 2.52 2.03 1.61 0.93 1.15 0.99 0.68 0.71 0.85 0.90 0.66 0.56 0.53 0.60 0.61 0.60 0.64 0.61 0.65 0.67 0.74 0.80 0.79 0.84 0.67 0.76
0.94 0.65 0.70 0.83 0.82 0.90 0.99 1.16 1.61 1.88 1.88 1.59 1.28 1.30 1.03 1.09 0.93 0.79 0.67 0.66 0.72 1.02 1.00 1.12 1.26 1.19 1.39 1.66 1.43 1.17 0.85 0.70 0.56 0.77 0.94 1.01 0.91 0.78 0.61 0.55 0.54 0.60 0.64 0.67 0.72 0.65 0.72 0.74 0.62 0.75 0.81 0.73 0.56 0.57
0.81 0.85 0.72 0.67 0.69 0.69 0.80 1.09 1.42 1.39 1.15 0.73 0.94 1.31 1.06 0.94 1.02 0.94 0.86 0.90 1.05 1.26 1.30 1.29 1.41 1.31 1.41 1.10 0.79 0.78 0.61 0.73 0.88 0.78 0.88 0.82 0.78 0.80 0.86 0.83 0.82 0.84 0.76 0.69 0.65 0.60 0.57 0.54 0.47 0.52 0.54 0.49 0.50 0.40
0.54 0.65 0.62 0.56 0.56 0.67 0.71 0.93 1.06 1.00 0.90 0.71 1.13 1.35 1.26 1.04 1.10 1.15 1.03 0.98 0.94 0.99 1.03 0.65 0.64 0.79 0.74 0.63 0.66 0.67 0.95 0.99 0.93 0.92 0.86 0.84 0.87 0.87 0.85 0.84 0.86 0.76 0.62 0.56 0.54 0.50 0.47 0.45 0.33 0.23 0.31 0.45 0.35 0.35
0.50 0.37 0.31 0.38 0.51 0.75 0.91 0.70 0.59 0.49 0.75 1.06 1.20 1.47 1.10 1.19 1.05 0.98 0.96 0.78 0.60 0.55 0.60 0.56 0.37 0.41 0.65 0.66 0.76 0.82 0.93 0.98 0.98 0.99 1.02 1.09 1.02 0.90 0.81 0.71 0.70 0.57 0.48 0.49 0.43 0.42 0.38 0.30 0.25 0.33 0.27 0.23 0.15 0.14
0.71 0.59 0.46 0.40 0.39 0.42 0.63 0.45 0.29 0.58 0.87 1.02 1.15 0.94 0.79 0.88 0.68 0.64 0.44 0.33 0.21 0.19 0.26 0.32 0.43 0.57 0.80 0.87 0.91 0.85 0.80 0.74 0.80 0.85 0.81 0.84 0.80 0.72 0.66 0.57 0.51 0.50 0.43 0.41 0.33 0.32 0.31 0.25 0.24 0.20 0.17 0.12 0.14 0.16
0.90 0.76 0.59 0.49 0.27 0.33 0.26 0.33 0.15 0.30 0.64 0.86 0.67 0.37 0.33 0.37 0.20 0.10 0.11 0.10 0.16 0.24 0.31 0.39 0.72 0.86 0.82 0.86 0.77 0.75 0.72 0.62 0.48 0.43 0.58 0.67 0.65 0.54 0.59 0.50 0.46 0.41 0.33 0.32 0.30 0.25 0.19 0.17 0.17 0.16 0.16 0.17 0.17 0.19
0.74 0.76 0.63 0.49 0.48 0.39 0.33 0.30 0.29 0.24 0.40 0.57 0.40 0.19 0.31 0.17 0.21 0.22 0.26 0.21 0.35 0.39 0.53 0.68 0.70 0.72 0.48 0.47 0.45 0.43 0.43 0.40 0.42 0.33 0.37 0.49 0.57 0.45 0.47 0.46 0.39 0.37 0.31 0.32 0.29 0.30 0.26 0.26 0.23 0.18 0.18 0.17 0.16 0.14
0.51 0.49 0.57 0.55 0.71 0.43 0.27 0.12 0.20 0.21 0.21 0.36 0.30 0.19 0.30 0.33 0.31 0.29 0.35 0.45 0.54 0.70 0.65 0.47 0.38 0.27 0.19 0.22 0.24 0.21 0.31 0.27 0.32 0.38 0.39 0.31 0.35 0.35 0.41 0.46 0.34 0.35 0.33 0.35 0.30 0.26 0.23 0.18 0.15 0.15 0.15 0.13 0.10 0.11
0.29 0.49 0.55 0.48 0.57 0.31 0.37 0.12 0.18 0.16 0.29 0.32 0.26 0.25 0.21 0.21 0.19 0.16 0.40 0.43 0.67 0.63 0.43 0.25 0.19 0.17 0.16 0.20 0.12 0.10 0.08 0.07 0.13 0.25 0.35 0.35 0.34 0.37 0.36 0.35 0.31 0.28 0.24 0.23 0.19 0.18 0.19 0.13 0.09 0.09 0.08 0.12 0.13 0.15
0.36 0.70 0.78 0.63 0.42 0.35 0.34 0.17 0.14 0.18 0.19 0.18 0.20 0.20 0.15 0.13 0.11 0.19 0.24 0.40 0.63 0.47 0.24 0.23 0.22 0.21 0.16 0.15 0.16 0.20 0.23 0.17 0.19 0.24 0.29 0.27 0.27 0.33 0.23 0.19 0.17 0.18 0.15 0.16 0.14 0.12 0.10 0.11 0.11 0.13 0.15 0.15 0.15 0.17
0.72 0.56 0.48 0.41 0.32 0.23 0.18 0.14 0.14 0.14 0.17 0.12 0.14 0.15 0.12 0.07 0.16 0.12 0.16 0.58 0.63 0.53 0.32 0.22 0.21 0.21 0.25 0.29 0.30 0.30 0.27 0.25 0.25 0.24 0.26 0.20 0.21 0.21 0.20 0.18 0.17 0.16 0.16 0.24 0.24 0.23 0.27 0.28 0.27 0.25 0.25 0.23 0.25 0.26
0.60 0.34 0.29 0.22 0.16 0.16 0.13 0.09 0.09 0.10 0.11 0.19 0.23 0.17 0.10 0.19 0.18 0.22 0.48 0.98 0.69 0.41 0.38 0.35 0.27 0.18 0.17 0.20 0.21 0.22 0.20 0.19 0.17 0.13 0.16 0.11 0.13 0.14 0.12 0.10 0.12 0.17 0.14 0.17 0.22 0.28 0.28 0.31 0.32 0.33 0.36 0.35 0.36 0.35
0.35 0.20 0.09 0.07 0.12 0.17 0.22 0.18 0.17 0.19 0.20 0.25 0.23 0.16 0.25 0.33 0.28 0.58 0.73 0.77 0.46 0.35 0.28 0.26 0.18 0.14 0.14 0.13 0.12 0.14 0.09 0.07 0.08 0.09 0.08 0.07 0.09 0.09 0.10 0.16 0.18 0.16 0.07 0.09 0.13 0.17 0.24 0.26 0.28 0.29 0.33 0.38 0.37 0.41
0.24 0.16 0.19 0.20 0.28 0.28 0.28 0.25 0.28 0.33 0.37 0.27 0.21 0.24 0.28 0.26 0.46 0.57 0.49 0.51 0.32 0.19 0.15 0.15 0.11 0.06 0.05 0.07 0.10 0.10 0.10 0.08 0.06 0.07 0.08 0.15 0.17 0.10 0.07 0.09 0.09 0.06 0.09 0.12 0.13 0.13 0.16 0.19 0.22 0.27 0.31 0.35 0.43 0.49
0.25 0.25 0.26 0.28 0.23 0.19 0.32 0.29 0.30 0.30 0.26 0.15 0.19 0.21 0.20 0.31 0.47 0.43 0.43 0.35 0.22 0.15 0.15 0.18 0.27 0.17 0.14 0.10 0.12 0.14 0.13 0.11 0.11 0.12 0.13 0.20 0.22 0.18 0.10 0.08 0.09 0.07 0.08 0.11 0.11 0.10 0.13 0.16 0.16 0.22 0.28 0.34 0.37 0.37
0.11 0.14 0.20 0.20 0.22 0.27 0.39 0.25 0.29 0.22 0.09 0.07 0.09 0.14 0.21 0.55 0.73 0.50 0.36 0.28 0.25 0.23 0.23 0.21 0.23 0.20 0.19 0.17 0.20 0.29 0.34 0.22 0.20 0.23 0.22 0.22 0.17 0.14 0.12 0.11 0.10 0.11 0.11 0.11 0.11 0.12 0.13 0.12 0.14 0.22 0.19 0.21 0.25 0.26
0.09 0.11 0.14 0.16 0.23 0.29 0.26 0.18 0.16 0.13 0.12 0.10 0.09 0.12 0.31 0.51 0.53 0.43 0.34 0.38 0.20 0.16 0.18 0.18 0.19 0.20 0.19 0.18 0.20 0.21 0.28 0.20 0.16 0.16 0.15 0.15 0.12 0.11 0.11 0.09 0.10 0.11 0.10 0.09 0.10 0.11 0.11 0.11 0.14 0.16 0.13 0.13 0.16 0.15
0.12 0.15 0.14 0.19 0.30 0.27 0.33 0.32 0.19 0.20 0.17 0.13 0.15 0.15 0.26 0.31 0.44 0.35 0.31 0.32 0.25 0.23 0.23 0.23 0.24 0.31 0.29 0.30 0.28 0.25 0.21 0.16 0.13 0.13 0.13 0.11 0.09 0.08 0.08 0.10 0.11 0.12 0.10 0.10 0.12 0.13 0.13 0.14 0.14 0.15 0.15 0.14 0.14 0.14
0.10 0.11 0.14 0.18 0.20 0.22 0.24 0.21 0.14 0.14 0.15 0.17 0.26 0.33 0.42 0.41 0.38 0.38 0.32 0.29 0.40 0.33 0.29 0.27 0.29 0.32 0.31 0.28 0.23 0.20 0.17 0.19 0.18 0.16 0.13 0.10 0.07 0.08 0.11 0.16 0.17 0.14 0.13 0.14 0.16 0.16 0.15 0.15 0.15 0.15 0.14 0.14 0.13 0.13